<- Previous Day | Today | Next Day ->

All Data for 02 March 2021

 

Time A - D Temp A - D Dew Point A - D Humidity A - D Pressure A - D Wind A - D Wind Dir Gust A - D Rain Rate A - D Rain Total
00:00 7.6 5.7 88 1025.2 6.9 NE 13.0 0.0 0.0
00:01 7.6 5.7 88 1025.1 9.8 NE 11.4 0.0 0.0
00:03 7.6 5.7 88 1025.1 6.0 E 10.7 0.0 0.0
00:04 7.6 5.7 88 1025.1 6.0 E 9.8 0.0 0.0
00:05 7.6 5.7 88 1025.3 6.0 E 9.8 0.0 0.0
00:06 7.6 5.7 88 1025.1 5.4 NW 9.8 0.0 0.0
00:07 7.6 5.7 88 1025.1 5.4 NW 9.8 0.0 0.0
00:08 7.6 5.7 88 1025.1 5.4 NE 9.8 0.0 0.0
00:09 7.6 5.7 88 1025.4 5.4 SW 9.8 0.0 0.0
00:10 7.6 5.7 88 1025.2 6.9 W 9.8 0.0 0.0
00:11 7.6 5.7 88 1025.2 12.1 W 12.1 0.0 0.0
00:12 7.6 5.7 88 1025.2 12.1 SE 12.1 0.0 0.0
00:13 7.6 5.7 88 1025.3 12.1 SE 12.1 0.0 0.0
00:14 7.6 5.7 88 1025.2 9.8 SW 12.1 0.0 0.0
00:15 7.6 5.7 88 1025.2 7.6 NE 12.1 0.0 0.0
00:16 7.6 5.7 88 1025.3 9.8 NE 12.1 0.0 0.0
00:18 7.6 5.7 88 1025.2 6.0 W 12.1 0.0 0.0
00:19 7.6 5.7 88 1025.0 3.8 NE 12.1 0.0 0.0
00:20 7.6 5.7 88 1025.0 7.6 NE 12.1 0.0 0.0
00:21 7.6 5.7 88 1025.1 6.9 N 12.1 0.0 0.0
00:22 7.6 5.7 88 1025.3 9.8 E 12.1 0.0 0.0
00:23 7.6 5.7 88 1025.2 8.3 E 12.1 0.0 0.0
00:24 7.6 5.7 88 1025.3 8.3 NE 9.8 0.0 0.0
00:25 7.6 5.7 88 1025.1 7.6 N 9.8 0.0 0.0
00:26 7.6 5.7 88 1025.0 6.9 N 9.8 0.0 0.0
00:27 7.6 5.7 88 1025.2 9.8 SE 9.8 0.0 0.0
00:28 7.6 5.7 88 1025.3 9.8 NE 9.8 0.0 0.0
00:29 7.6 5.7 88 1025.2 5.4 N 9.8 0.0 0.0
00:30 7.5 5.6 88 1025.0 8.3 NE 9.8 0.0 0.0
00:32 7.5 5.6 88 1025.1 6.0 SW 9.8 0.0 0.0
00:33 7.5 5.6 88 1025.1 6.0 SW 9.8 0.0 0.0
00:34 7.5 5.6 88 1025.1 11.4 NE 11.4 0.0 0.0
00:35 7.5 5.6 88 1025.2 9.2 ENE 11.4 0.0 0.0
00:36 7.5 5.6 88 1025.0 6.9 NE 11.4 0.0 0.0
00:37 7.5 5.6 88 1025.1 12.1 E 12.1 0.0 0.0
00:38 7.5 5.6 88 1025.2 9.2 E 12.1 0.0 0.0
00:39 7.4 6.3 93 1025.3 6.0 NE 12.1 0.0 0.0
00:40 7.4 6.3 93 1025.2 6.0 NE 12.1 0.0 0.0
00:41 7.4 6.3 93 1025.3 6.9 E 12.1 0.0 0.0
00:42 7.4 6.3 93 1025.2 9.8 NE 12.1 0.0 0.0
00:43 7.4 6.3 93 1025.1 6.9 SSE 12.1 0.0 0.0
00:44 7.4 6.3 93 1025.2 5.4 NE 12.1 0.0 0.0
00:46 7.4 6.3 93 1025.2 7.6 NE 12.1 0.0 0.0
00:47 7.4 6.3 93 1025.1 8.3 N 12.1 0.0 0.0
00:48 7.4 6.3 93 1025.2 9.2 NE 9.8 0.0 0.0
00:49 7.4 6.3 93 1025.3 8.3 SE 9.8 0.0 0.0
00:50 7.3 6.2 93 1025.2 9.8 NE 11.4 0.0 0.0
00:51 7.3 6.2 93 1025.3 10.7 NE 11.4 0.0 0.0
00:52 7.3 6.2 93 1025.3 13.0 NE 13.0 0.0 0.0
00:53 7.3 6.2 93 1025.3 13.6 E 13.6 0.0 0.0
00:54 7.3 6.2 93 1025.1 7.6 SE 13.6 0.0 0.0
00:55 7.3 6.2 93 1025.0 9.2 NE 13.6 0.0 0.0
00:56 7.3 6.2 93 1025.2 8.3 NE 13.6 0.0 0.0
00:58 7.3 6.2 93 1025.0 10.7 E 13.6 0.0 0.0
00:59 7.3 6.2 93 1025.2 7.6 NE 13.6 0.0 0.0
01:01 7.3 6.2 93 1025.2 7.6 NW 13.6 0.0 0.0
01:02 7.3 6.2 93 1025.0 7.6 NW 13.6 0.0 0.0
01:03 7.3 6.2 93 1025.2 7.6 NW 13.6 0.0 0.0
01:04 7.3 6.2 93 1025.2 7.6 NW 10.7 0.0 0.0
01:05 7.3 6.2 93 1024.9 7.6 NW 10.7 0.0 0.0
01:06 7.2 6.0 92 1025.0 9.2 E 10.7 0.0 0.0
01:07 7.2 6.0 92 1025.1 8.3 N 10.7 0.0 0.0
01:08 7.2 6.0 92 1025.2 8.3 N 10.7 0.0 0.0
01:09 7.2 6.0 92 1024.8 6.9 NE 12.1 0.0 0.0
01:10 7.2 6.0 92 1024.9 9.8 NE 12.1 0.0 0.0
01:11 7.2 6.0 92 1025.0 9.8 E 12.1 0.0 0.0
01:12 7.2 6.0 92 1025.0 8.3 NE 12.1 0.0 0.0
01:13 7.2 6.0 92 1025.0 6.0 NE 12.1 0.0 0.0
01:15 7.2 6.0 92 1025.1 6.9 NE 12.1 0.0 0.0
01:16 7.2 6.0 92 1024.9 8.3 S 12.1 0.0 0.0
01:17 7.2 6.0 92 1025.0 4.5 NW 12.1 0.0 0.0
01:18 7.2 6.0 92 1025.0 7.6 NE 12.1 0.0 0.0
01:19 7.2 6.0 92 1025.0 10.7 SW 10.7 0.0 0.0
01:20 7.2 6.0 92 1025.0 8.3 W 10.7 0.0 0.0
01:21 7.2 6.0 92 1025.0 9.2 SW 10.7 0.0 0.0
01:22 7.2 6.0 92 1024.9 11.4 W 11.4 0.0 0.0
01:23 7.2 6.0 92 1025.3 7.6 N 11.4 0.0 0.0
01:24 7.2 6.0 92 1024.9 9.2 NE 11.4 0.0 0.0
01:25 7.2 6.0 92 1025.0 8.3 E 11.4 0.0 0.0
01:26 7.2 6.0 92 1025.0 11.4 NE 11.4 0.0 0.0
01:27 7.2 6.0 92 1025.0 11.4 NE 11.4 0.0 0.0
01:28 7.2 6.0 92 1024.8 6.9 NW 11.4 0.0 0.0
01:30 7.2 6.1 93 1025.0 9.2 W 11.4 0.0 0.0
01:31 7.3 6.2 93 1025.0 9.2 SW 11.4 0.0 0.0
01:32 7.3 6.2 93 1025.0 3.8 SW 11.4 0.0 0.0
01:33 7.3 6.2 93 1025.0 4.5 NE 11.4 0.0 0.0
01:34 7.3 6.2 93 1024.9 8.3 NE 11.4 0.0 0.0
01:35 7.3 6.2 93 1025.1 6.9 NE 11.4 0.0 0.0
01:36 7.3 6.2 93 1025.2 11.4 E 11.4 0.0 0.0
01:37 7.4 6.3 93 1025.0 11.4 NE 11.4 0.0 0.0
01:38 7.4 6.3 93 1025.1 8.3 SE 11.4 0.0 0.0
01:39 7.4 6.3 93 1025.0 8.3 NE 11.4 0.0 0.0
01:40 7.4 6.3 93 1025.0 9.8 E 11.4 0.0 0.0
01:41 7.4 6.3 93 1025.1 9.2 N 11.4 0.0 0.0
01:42 7.4 6.3 93 1025.0 7.6 NE 11.4 0.0 0.0
01:43 7.4 6.3 93 1024.9 9.2 E 11.4 0.0 0.0
01:45 7.5 5.6 88 1025.0 10.7 NE 13.6 0.0 0.0
01:46 7.5 5.6 88 1025.2 7.6 NE 13.6 0.0 0.0
01:47 7.5 5.6 88 1024.9 9.8 WNW 13.6 0.0 0.0
01:48 7.5 5.6 88 1024.9 9.2 NE 13.6 0.0 0.0
01:49 7.5 5.6 88 1025.0 8.3 NE 13.6 0.0 0.0
01:50 7.5 5.6 88 1025.0 9.8 NE 13.6 0.0 0.0
01:51 7.5 5.6 88 1024.9 9.2 NE 13.6 0.0 0.0
01:52 7.5 5.6 88 1024.9 9.2 NE 13.6 0.0 0.0
01:53 7.5 5.6 88 1025.0 10.7 E 13.6 0.0 0.0
01:54 7.6 5.7 88 1025.0 8.3 NE 13.6 0.0 0.0
01:55 7.6 5.7 88 1025.0 7.6 E 10.7 0.0 0.0
01:56 7.6 5.7 88 1025.0 8.3 E 10.7 0.0 0.0
01:57 7.6 5.7 88 1025.1 10.7 E 10.7 0.0 0.0
01:59 7.6 5.7 88 1025.1 9.2 NE 10.7 0.0 0.0
02:00 7.6 5.7 88 1025.1 9.2 NE 10.7 0.0 0.0
02:01 7.6 5.7 88 1025.1 6.0 E 10.7 0.0 0.0
02:02 7.6 5.9 89 1024.8 10.7 W 10.7 0.0 0.0
02:03 7.6 5.9 89 1025.1 10.7 NE 10.7 0.0 0.0
02:04 7.6 5.9 89 1024.9 11.4 N 11.4 0.0 0.0
02:05 7.6 5.9 89 1024.9 11.4 NE 11.4 0.0 0.0
02:06 7.6 5.9 89 1025.2 9.2 NE 11.4 0.0 0.0
02:07 7.6 5.9 89 1025.0 9.2 NE 11.4 0.0 0.0
02:08 7.6 5.9 89 1025.1 6.9 NE 11.4 0.0 0.0
02:09 7.6 5.9 89 1025.0 6.9 NE 11.4 0.0 0.0
02:10 7.6 5.9 89 1024.7 6.0 NE 11.4 0.0 0.0
02:11 7.6 5.9 89 1025.0 6.0 NE 11.4 0.0 0.0
02:13 7.6 5.9 89 1024.9 6.9 NE 11.4 0.0 0.0
02:14 7.6 5.9 89 1024.8 12.1 E 12.1 0.0 0.0
02:15 7.6 5.9 89 1024.7 9.2 WNW 12.1 0.0 0.0
02:16 7.6 5.9 89 1024.9 8.3 E 12.1 0.0 0.0
02:17 7.6 5.9 89 1025.1 15.2 SE 15.2 0.0 0.0
02:18 7.6 5.9 89 1024.9 9.2 NE 15.2 0.0 0.0
02:19 7.6 5.9 89 1025.1 9.2 NE 15.2 0.0 0.0
02:20 7.6 5.9 89 1024.8 6.9 SW 15.2 0.0 0.0
02:21 7.6 5.9 89 1024.9 9.8 E 15.2 0.0 0.0
02:22 7.6 5.9 89 1025.0 8.3 E 15.2 0.0 0.0
02:23 7.6 5.9 89 1025.0 8.3 NE 15.2 0.0 0.0
02:24 7.6 5.9 89 1025.0 11.4 E 15.2 0.0 0.0
02:25 7.6 5.9 89 1024.9 9.2 NE 15.2 0.0 0.0
02:27 7.6 5.9 89 1025.0 9.2 NE 11.4 0.0 0.0
02:28 7.6 5.9 89 1025.1 9.2 NE 11.4 0.0 0.0
02:29 7.6 5.9 89 1025.0 10.7 E 11.4 0.0 0.0
02:30 7.6 5.9 89 1024.8 9.2 NE 11.4 0.0 0.0
02:31 7.6 5.9 89 1024.9 9.2 NE 11.4 0.0 0.0
02:32 7.6 5.9 89 1025.0 13.0 NE 13.0 0.0 0.0
02:33 7.6 5.9 89 1024.8 13.0 NE 13.0 0.0 0.0
02:34 7.5 5.8 89 1024.9 13.0 NE 13.0 0.0 0.0
02:35 7.5 5.8 89 1025.0 10.7 NE 13.0 0.0 0.0
02:36 7.5 5.8 89 1024.9 10.7 N 13.0 0.0 0.0
02:37 7.5 5.8 89 1024.9 8.3 NE 13.0 0.0 0.0
02:38 7.5 5.8 89 1024.8 9.2 NE 13.0 0.0 0.0
02:39 7.5 5.8 89 1024.7 7.6 N 13.0 0.0 0.0
02:41 7.5 5.8 89 1024.9 7.6 NE 13.0 0.0 0.0
02:42 7.4 6.3 93 1024.8 15.2 E 15.2 0.0 0.0
02:43 7.4 6.3 93 1024.9 15.2 E 15.2 0.0 0.0
02:44 7.4 6.3 93 1024.8 9.8 NNE 15.2 0.0 0.0
02:45 7.4 6.3 93 1024.9 9.8 NE 15.2 0.0 0.0
02:46 7.4 6.3 93 1024.8 9.2 NE 15.2 0.0 0.0
02:47 7.4 6.3 93 1024.7 11.4 NE 15.2 0.0 0.0
02:48 7.4 6.3 93 1024.6 9.8 WNW 15.2 0.0 0.0
02:49 7.4 6.3 93 1025.0 9.8 E 15.2 0.0 0.0
02:50 7.4 6.3 93 1024.8 5.4 NE 15.2 0.0 0.0
02:51 7.4 6.3 93 1024.6 6.9 NE 15.2 0.0 0.0
02:52 7.4 6.3 93 1024.8 13.0 W 15.2 0.0 0.0
02:53 7.4 6.3 93 1024.5 11.4 N 13.0 0.0 0.0
02:55 7.4 6.3 93 1024.8 7.6 E 13.0 0.0 0.0
02:56 7.4 6.3 93 1024.9 11.4 N 13.0 0.0 0.0
02:57 7.4 6.3 93 1024.6 11.4 NE 13.0 0.0 0.0
02:58 7.4 6.3 93 1024.7 9.2 E 13.0 0.0 0.0
02:59 7.4 6.3 93 1024.9 11.4 E 13.0 0.0 0.0
03:00 7.4 6.3 93 1024.9 11.4 E 13.0 0.0 0.0
03:01 7.4 6.3 93 1025.0 11.4 E 13.0 0.0 0.0
03:02 7.4 6.3 93 1024.8 11.4 E 13.0 0.0 0.0
03:03 7.4 6.3 93 1024.7 11.4 E 11.4 0.0 0.0
03:04 7.4 6.3 93 1024.9 11.4 E 11.4 0.0 0.0
03:05 7.4 6.3 93 1024.7 11.4 E 11.4 0.0 0.0
03:06 7.3 6.2 93 1024.6 11.4 E 11.4 0.0 0.0
03:07 7.3 6.2 93 1024.8 11.4 E 11.4 0.0 0.0
03:09 7.3 6.2 93 1024.7 9.2 NE 11.4 0.0 0.0
03:10 7.3 6.2 93 1024.9 9.2 NE 11.4 0.0 0.0
03:11 7.3 6.2 93 1024.6 12.1 NE 12.1 0.0 0.0
03:12 7.3 6.2 93 1024.7 12.1 NE 12.1 0.0 0.0
03:13 7.3 6.2 93 1024.7 10.7 NE 12.1 0.0 0.0
03:14 7.3 6.2 93 1024.7 10.7 NE 12.1 0.0 0.0
03:15 7.3 6.2 93 1024.8 12.1 E 12.1 0.0 0.0
03:16 7.3 6.2 93 1025.0 9.8 E 12.1 0.0 0.0
03:17 7.3 6.2 93 1024.7 6.0 SE 12.1 0.0 0.0
03:18 7.3 6.2 93 1024.6 7.6 NE 12.1 0.0 0.0
03:19 7.3 6.2 93 1024.7 7.6 NE 12.1 0.0 0.0
03:20 7.3 6.2 93 1024.5 11.4 NW 12.1 0.0 0.0
03:21 7.3 6.2 93 1024.6 11.4 NW 12.1 0.0 0.0
03:23 7.2 6.1 93 1024.7 11.4 E 12.1 0.0 0.0
03:24 7.2 6.1 93 1024.5 7.6 NE 12.1 0.0 0.0
03:25 7.2 6.1 93 1024.6 7.6 NE 12.1 0.0 0.0
03:26 7.2 6.1 93 1024.6 9.8 SE 11.4 0.0 0.0
03:27 7.2 6.1 93 1024.6 9.8 NE 11.4 0.0 0.0
03:28 7.2 6.1 93 1024.5 9.8 NE 11.4 0.0 0.0
03:29 7.2 6.1 93 1024.5 9.8 NE 11.4 0.0 0.0
03:30 7.2 6.1 93 1024.5 9.8 NE 11.4 0.0 0.0
03:31 7.2 6.1 93 1024.7 9.8 NE 11.4 0.0 0.0
03:32 7.2 6.1 93 1024.4 8.3 E 11.4 0.0 0.0
03:33 7.2 6.1 93 1024.7 8.3 E 10.7 0.0 0.0
03:34 7.2 6.1 93 1024.5 8.3 E 10.7 0.0 0.0
03:35 7.2 6.1 93 1024.7 7.6 NNE 10.7 0.0 0.0
03:37 7.2 6.1 93 1024.6 5.4 N 10.7 0.0 0.0
03:38 7.2 6.1 93 1024.5 5.4 N 10.7 0.0 0.0
03:39 7.2 6.1 93 1024.6 6.9 NE 10.7 0.0 0.0
03:40 7.2 6.1 93 1024.5 5.4 NE 10.7 0.0 0.0
03:41 7.2 6.1 93 1024.5 9.8 N 10.7 0.0 0.0
03:42 7.2 6.1 93 1024.3 9.8 N 10.7 0.0 0.0
03:43 7.2 6.1 93 1024.3 8.3 E 9.8 0.0 0.0
03:44 7.2 6.1 93 1024.4 8.3 E 9.8 0.0 0.0
03:45 7.2 6.1 93 1024.6 10.7 E 10.7 0.0 0.0
03:46 7.2 6.1 93 1024.4 10.7 NE 10.7 0.0 0.0
03:47 7.2 6.1 93 1024.4 11.4 E 11.4 0.0 0.0
03:48 7.2 6.1 93 1024.5 8.3 SE 12.1 0.0 0.0
03:49 7.2 6.1 93 1024.3 8.3 SE 12.1 0.0 0.0
03:51 7.2 6.1 93 1024.4 10.7 NE 12.1 0.0 0.0
03:52 7.2 6.1 93 1024.5 5.4 SE 12.1 0.0 0.0
03:53 7.2 6.1 93 1024.4 9.2 E 12.1 0.0 0.0
03:54 7.2 6.1 93 1024.5 9.2 E 12.1 0.0 0.0
03:55 7.2 6.1 93 1024.3 10.7 E 12.1 0.0 0.0
03:56 7.2 6.1 93 1024.4 10.7 E 12.1 0.0 0.0
03:57 7.2 6.1 93 1024.5 9.2 W 12.1 0.0 0.0
03:58 7.2 6.1 93 1024.3 6.0 NE 12.1 0.0 0.0
03:59 7.2 6.1 93 1024.5 9.2 NE 10.7 0.0 0.0
04:00 7.2 6.1 93 1024.6 9.2 NE 10.7 0.0 0.0
04:01 7.2 6.1 93 1024.5 9.2 NE 10.7 0.0 0.0
04:02 7.2 6.1 93 1024.3 4.5 N 10.7 0.0 0.0
04:03 7.2 6.1 93 1024.3 4.5 N 10.7 0.0 0.0
04:05 7.2 6.1 93 1024.4 15.2 NE 15.2 0.0 0.0
04:06 7.2 6.1 93 1024.4 15.2 NE 15.2 0.0 0.0
04:07 7.2 6.1 93 1024.4 9.2 NE 15.2 0.0 0.0
04:08 7.2 6.1 93 1024.1 8.3 W 15.2 0.0 0.0
04:09 7.2 6.1 93 1024.4 10.7 NW 15.2 0.0 0.0
04:10 7.2 6.1 93 1024.3 10.7 NE 15.2 0.0 0.0
04:11 7.2 6.1 93 1024.6 9.8 E 15.2 0.0 0.0
04:12 7.2 6.1 93 1024.3 9.8 E 15.2 0.0 0.0
04:13 7.2 6.1 93 1024.3 9.8 E 15.2 0.0 0.0
04:14 7.2 6.1 93 1024.5 6.9 NE 15.2 0.0 0.0
04:15 7.2 6.1 93 1024.2 9.2 SSE 15.2 0.0 0.0
04:16 7.2 6.1 93 1024.2 12.1 NE 12.1 0.0 0.0
04:17 7.2 6.1 93 1024.5 12.1 NE 12.1 0.0 0.0
04:19 7.2 6.1 93 1024.4 12.1 NE 12.1 0.0 0.0
04:20 7.2 6.1 93 1024.3 10.7 N 12.1 0.0 0.0
04:21 7.2 6.1 93 1024.3 12.1 NE 12.1 0.0 0.0
04:22 7.2 6.1 93 1024.3 13.6 W 13.6 0.0 0.0
04:23 7.2 6.1 93 1024.3 12.1 NE 13.6 0.0 0.0
04:24 7.2 6.1 93 1024.2 7.6 E 13.6 0.0 0.0
04:25 7.2 6.1 93 1024.4 6.9 WNW 13.6 0.0 0.0
04:26 7.2 6.1 93 1024.4 9.2 E 13.6 0.0 0.0
04:27 7.2 6.1 93 1024.4 9.2 E 13.6 0.0 0.0
04:28 7.2 6.1 93 1024.5 6.0 NE 13.6 0.0 0.0
04:29 7.2 6.1 93 1024.5 9.2 NE 13.6 0.0 0.0
04:30 7.2 6.1 93 1024.4 13.0 E 13.6 0.0 0.0
04:31 7.2 6.1 93 1024.3 13.0 E 13.6 0.0 0.0
04:32 7.2 6.1 93 1024.5 6.9 NNW 13.6 0.0 0.0
04:34 7.2 6.1 93 1024.5 6.9 NNW 13.0 0.0 0.0
04:35 7.2 6.1 93 1024.4 9.2 NE 13.0 0.0 0.0
04:36 7.2 6.1 93 1024.3 9.2 NE 13.0 0.0 0.0
04:37 7.2 6.1 93 1024.3 9.2 NE 13.0 0.0 0.0
04:38 7.2 6.1 93 1024.5 9.2 NE 13.0 0.0 0.0
04:39 7.2 6.1 93 1024.3 11.4 NE 13.0 0.0 0.0
04:40 7.2 6.1 93 1024.4 9.8 NE 13.0 0.0 0.0
04:41 7.2 6.1 93 1024.3 10.7 NW 13.0 0.0 0.0
04:42 7.2 6.1 93 1024.3 10.7 NE 11.4 0.0 0.0
04:43 7.2 6.1 93 1024.2 10.7 NE 11.4 0.0 0.0
04:44 7.2 6.1 93 1024.4 10.7 NE 11.4 0.0 0.0
04:45 7.2 6.1 93 1024.3 6.9 NW 11.4 0.0 0.0
04:46 7.2 6.1 93 1024.5 6.9 NW 11.4 0.0 0.0
04:48 7.2 6.1 93 1024.2 9.2 N 11.4 0.0 0.0
04:49 7.2 6.1 93 1024.3 9.2 N 11.4 0.0 0.0
04:50 7.2 6.1 93 1024.2 10.7 E 11.4 0.0 0.0
04:51 7.2 6.1 93 1024.4 10.7 N 11.4 0.0 0.0
04:52 7.2 6.1 93 1024.1 10.7 N 11.4 0.0 0.0
04:53 7.2 6.1 93 1024.2 10.7 N 11.4 0.0 0.0
04:54 7.2 6.1 93 1024.0 9.2 NE 11.4 0.0 0.0
04:55 7.2 6.1 93 1024.4 9.2 SE 11.4 0.0 0.0
04:56 7.2 6.1 93 1024.4 6.9 SSE 11.4 0.0 0.0
04:57 7.2 6.1 93 1024.1 9.2 NE 11.4 0.0 0.0
04:58 7.2 6.1 93 1024.1 6.9 NE 11.4 0.0 0.0
04:59 7.2 6.1 93 1024.3 6.0 N 11.4 0.0 0.0
05:02 7.2 6.3 94 1024.5 7.6 SW 11.4 0.0 0.0
05:03 7.2 6.3 94 1024.4 7.6 SW 11.4 0.0 0.0
05:04 7.2 6.3 94 1024.3 7.6 SW 9.2 0.0 0.0
05:05 7.2 6.3 94 1024.1 7.6 SW 9.2 0.0 0.0
05:06 7.2 6.3 94 1024.3 8.3 E 9.2 0.0 0.0
05:07 7.2 6.3 94 1024.4 8.3 E 9.2 0.0 0.0
05:08 7.2 6.3 94 1024.1 13.6 NE 13.6 0.0 0.0
05:09 7.2 6.3 94 1024.3 13.0 NE 13.6 0.0 0.0
05:10 7.2 6.3 94 1024.4 10.7 N 13.6 0.0 0.0
05:11 7.2 6.3 94 1024.3 13.6 NE 13.6 0.0 0.0
05:12 7.2 6.3 94 1024.4 13.6 NE 13.6 0.0 0.0
05:13 7.1 6.2 94 1024.2 11.4 E 13.6 0.0 0.0
05:14 7.1 6.2 94 1024.5 11.4 E 13.6 0.0 0.0
05:16 7.1 6.2 94 1024.5 9.2 N 13.6 0.0 0.0
05:17 7.1 6.2 94 1024.5 6.0 E 13.6 0.0 0.0
05:18 7.1 6.2 94 1024.4 15.2 E 15.2 0.0 0.0
05:19 7.1 6.2 94 1024.4 12.1 E 15.2 0.0 0.0
05:20 7.1 6.2 94 1024.5 12.1 E 15.2 0.0 0.0
05:21 7.1 6.2 94 1024.4 9.2 E 15.2 0.0 0.0
05:22 7.1 6.2 94 1024.4 9.2 E 15.2 0.0 0.0
05:23 7.1 6.2 94 1024.4 11.4 NW 15.2 0.0 0.0
05:24 7.1 6.2 94 1024.4 6.9 N 15.2 0.0 0.0
05:25 7.1 6.2 94 1024.4 8.3 E 15.2 0.0 0.0
05:26 7.1 6.2 94 1024.3 8.3 E 15.2 0.0 0.0
05:27 7.1 6.2 94 1024.4 8.3 E 15.2 0.0 0.0
05:29 7.1 6.2 94 1024.4 9.8 SSW 12.1 0.0 0.0
05:30 7.1 6.2 94 1024.3 10.7 NE 12.1 0.0 0.0
05:31 7.1 6.2 94 1024.5 10.7 NE 11.4 0.0 0.0
05:32 7.1 6.2 94 1024.4 10.7 NE 11.4 0.0 0.0
05:33 7.1 6.2 94 1024.3 8.3 NE 11.4 0.0 0.0
05:34 7.1 6.2 94 1024.6 8.3 NE 10.7 0.0 0.0
05:35 7.1 6.2 94 1024.6 6.0 NE 10.7 0.0 0.0
05:36 7.1 6.2 94 1024.5 6.0 NE 10.7 0.0 0.0
05:37 7.1 6.2 94 1024.3 9.2 W 10.7 0.0 0.0
05:38 7.1 6.2 94 1024.5 8.3 E 10.7 0.0 0.0
05:39 7.1 6.2 94 1024.7 6.9 S 10.7 0.0 0.0
05:40 7.1 6.2 94 1024.3 13.0 N 13.0 0.0 0.0
05:41 7.1 6.2 94 1024.7 13.0 N 13.0 0.0 0.0
05:42 7.0 6.1 94 1024.5 10.7 W 13.0 0.0 0.0
05:44 7.0 6.1 94 1024.5 13.0 NE 13.0 0.0 0.0
05:45 7.0 6.1 94 1024.5 13.0 NE 13.0 0.0 0.0
05:46 7.0 6.1 94 1024.6 9.8 N 13.0 0.0 0.0
05:47 7.0 6.1 94 1024.5 7.6 NE 13.0 0.0 0.0
05:48 7.0 6.1 94 1024.6 6.0 NE 13.0 0.0 0.0
05:49 7.0 6.1 94 1024.3 13.0 NW 13.0 0.0 0.0
05:50 7.0 6.1 94 1024.6 9.2 N 13.0 0.0 0.0
05:51 7.0 6.1 94 1024.7 9.8 NW 13.0 0.0 0.0
05:52 7.0 6.1 94 1024.7 12.1 E 13.0 0.0 0.0
05:53 7.0 6.1 94 1024.5 12.1 E 13.0 0.0 0.0
05:54 7.0 6.1 94 1024.7 9.2 E 13.0 0.0 0.0
05:55 7.0 6.1 94 1024.7 11.4 NE 13.0 0.0 0.0
05:56 7.0 6.1 94 1024.8 9.8 E 13.0 0.0 0.0
05:58 7.0 6.1 94 1024.6 15.2 SE 15.2 0.0 0.0
05:59 7.0 6.1 94 1024.5 8.3 NW 15.2 0.0 0.0
06:00 7.0 6.1 94 1024.6 9.2 NE 15.2 0.0 0.0
06:01 7.0 6.1 94 1024.6 8.3 NW 15.2 0.0 0.0
06:02 7.0 6.1 94 1024.5 6.9 NE 15.2 0.0 0.0
06:03 7.0 6.1 94 1024.8 9.8 E 15.2 0.0 0.0
06:04 7.0 6.1 94 1024.5 9.2 E 15.2 0.0 0.0
06:05 7.0 6.1 94 1024.4 12.1 E 15.2 0.0 0.0
06:06 7.0 6.1 94 1024.9 8.3 E 15.2 0.0 0.0
06:07 7.0 6.1 94 1024.6 13.0 NE 15.2 0.0 0.0
06:08 7.0 6.1 94 1024.5 7.6 NW 15.2 0.0 0.0
06:09 7.0 6.1 94 1024.7 7.6 NE 13.0 0.0 0.0
06:11 7.0 6.1 94 1024.6 8.3 E 13.0 0.0 0.0
06:12 7.0 6.1 94 1024.7 9.8 W 13.0 0.0 0.0
06:13 7.0 6.1 94 1024.7 8.3 E 13.0 0.0 0.0
06:14 7.0 6.1 94 1024.6 9.8 W 13.0 0.0 0.0
06:15 7.0 6.1 94 1024.6 4.5 NE 13.0 0.0 0.0
06:16 7.0 6.1 94 1024.6 4.5 E 13.0 0.0 0.0
06:17 7.0 6.1 94 1024.5 8.3 NE 13.0 0.0 0.0
06:18 7.0 6.1 94 1024.4 8.3 NE 9.8 0.0 0.0
06:19 7.0 6.1 94 1024.8 8.3 NE 9.8 0.0 0.0
06:20 7.0 6.1 94 1024.7 8.3 E 9.8 0.0 0.0
06:21 7.0 6.1 94 1024.4 8.3 E 9.8 0.0 0.0
06:22 7.0 6.1 94 1024.6 6.9 NE 9.8 0.0 0.0
06:23 7.0 6.1 94 1024.7 13.0 NE 13.0 0.0 0.0
06:24 7.0 6.1 94 1024.9 10.7 E 13.0 0.0 0.0
06:26 7.0 6.1 94 1024.6 12.1 NE 13.0 0.0 0.0
06:27 7.0 6.1 94 1024.7 9.2 NE 13.0 0.0 0.0
06:28 7.0 6.1 94 1024.7 11.4 E 13.0 0.0 0.0
06:29 7.0 6.1 94 1024.6 11.4 N 13.0 0.0 0.0
06:30 7.0 6.1 94 1024.7 12.1 NW 13.0 0.0 0.0
06:31 7.0 6.1 94 1024.6 9.8 E 13.0 0.0 0.0
06:32 7.0 6.1 94 1024.6 8.3 E 13.0 0.0 0.0
06:33 7.0 6.1 94 1024.6 7.6 E 13.0 0.0 0.0
06:34 7.0 6.1 94 1024.8 9.2 N 12.1 0.0 0.0
06:35 7.0 6.1 94 1024.7 13.6 NE 13.6 0.0 0.0
06:36 7.0 6.1 94 1024.8 8.3 NW 13.6 0.0 0.0
06:37 7.0 6.1 94 1024.7 8.3 NW 13.6 0.0 0.0
06:39 7.0 6.1 94 1024.9 8.3 NW 13.6 0.0 0.0
06:40 7.0 6.1 94 1024.9 9.2 W 13.6 0.0 0.0
06:41 7.0 6.1 94 1024.8 5.4 NE 13.6 0.0 0.0
06:42 7.0 6.1 94 1025.0 6.0 NE 13.6 0.0 0.0
06:43 7.0 6.1 94 1024.9 6.9 NW 13.6 0.0 0.0
06:44 7.0 6.1 94 1024.7 6.9 NE 13.6 0.0 0.0
06:45 7.0 6.1 94 1024.7 8.3 N 13.6 0.0 0.0
06:46 7.0 6.1 94 1024.8 6.0 NW 9.2 0.0 0.0
06:47 7.0 6.1 94 1024.8 5.4 NE 9.2 0.0 0.0
06:48 7.0 6.1 94 1024.8 6.0 N 9.2 0.0 0.0
06:49 7.0 6.1 94 1024.9 9.2 NNE 9.2 0.0 0.0
06:50 7.0 6.1 94 1025.0 6.9 NW 9.2 0.0 0.0
06:51 7.0 6.1 94 1024.7 10.7 NE 10.7 0.0 0.0
06:53 7.0 6.1 94 1024.8 13.0 E 13.0 0.0 0.0
06:54 7.0 6.1 94 1024.8 13.0 WSW 13.0 0.0 0.0
06:55 7.0 6.1 94 1025.0 8.3 SE 13.0 0.0 0.0
06:56 7.0 6.1 94 1024.8 9.2 NE 13.0 0.0 0.0
06:57 7.0 6.1 94 1024.7 9.2 NE 13.0 0.0 0.0
06:58 7.0 6.1 94 1024.9 8.3 NE 13.0 0.0 0.0
06:59 7.0 6.1 94 1024.8 9.2 NE 13.0 0.0 0.0
07:00 7.0 6.1 94 1025.0 8.3 NE 13.0 0.0 0.0
07:01 7.0 6.1 94 1025.0 8.3 NE 13.0 0.0 0.0
07:02 7.0 6.1 94 1024.8 8.3 NE 13.0 0.0 0.0
07:03 7.0 6.1 94 1025.0 8.3 NE 13.0 0.0 0.0
07:04 7.0 6.1 94 1024.9 8.3 NE 9.2 0.0 0.0
07:05 7.0 6.1 94 1024.9 8.3 NE 9.2 0.0 0.0
07:06 7.0 6.1 94 1024.9 8.3 NW 9.2 0.0 0.0
07:08 7.0 6.1 94 1024.8 9.8 NE 9.8 0.0 0.0
07:09 7.0 6.1 94 1024.9 9.8 NE 9.8 0.0 0.0
07:10 7.0 6.1 94 1025.0 12.1 NE 12.1 0.0 0.0
07:11 7.0 6.1 94 1025.0 8.3 SW 12.1 0.0 0.0
07:12 7.0 6.1 94 1025.0 12.1 S 12.1 0.0 0.0
07:13 7.0 6.1 94 1025.0 15.9 NE 15.9 0.0 0.0
07:14 7.0 6.1 94 1025.1 12.1 NE 15.9 0.0 0.0
07:15 6.9 6.0 94 1025.1 9.2 NE 15.9 0.0 0.0
07:16 6.9 6.0 94 1025.2 6.0 NE 15.9 0.0 0.0
07:17 6.9 6.0 94 1025.2 7.6 NE 15.9 0.0 0.0
07:18 6.9 6.0 94 1025.2 13.0 NE 15.9 0.0 0.0
07:19 6.9 6.0 94 1025.1 7.6 E 15.9 0.0 0.0
07:20 6.9 6.0 94 1025.3 7.6 NE 15.9 0.0 0.0
07:22 6.9 6.0 94 1025.1 6.0 W 15.9 0.0 0.0
07:23 6.9 6.0 94 1025.2 3.8 E 15.9 0.0 0.0
07:24 6.9 6.0 94 1025.3 6.9 NE 13.0 0.0 0.0
07:25 6.9 6.0 94 1025.3 11.4 E 13.0 0.0 0.0
07:26 6.9 6.0 94 1025.2 9.8 N 13.0 0.0 0.0
07:27 6.9 6.0 94 1025.2 7.6 NE 13.0 0.0 0.0
07:28 6.9 6.0 94 1025.2 7.6 NE 13.0 0.0 0.0
07:29 6.9 6.0 94 1025.1 7.6 SW 13.0 0.0 0.0
07:30 6.9 6.0 94 1025.1 6.9 E 13.0 0.0 0.0
07:31 6.9 6.0 94 1025.2 6.9 S 13.0 0.0 0.0
07:32 6.9 6.0 94 1025.3 6.9 E 13.0 0.0 0.0
07:33 6.9 6.0 94 1025.1 9.8 NE 13.0 0.0 0.0
07:34 6.9 6.0 94 1025.3 6.0 N 13.0 0.0 0.0
07:36 6.9 6.0 94 1025.2 9.2 S 9.8 0.0 0.0
07:37 6.9 6.2 95 1025.3 9.2 W 9.8 0.0 0.0
07:38 6.9 6.2 95 1025.2 9.8 NE 9.8 0.0 0.0
07:39 6.9 6.2 95 1025.4 7.6 NE 9.8 0.0 0.0
07:40 6.9 6.2 95 1025.3 6.0 NE 9.8 0.0 0.0
07:41 6.9 6.2 95 1025.3 4.5 NE 9.8 0.0 0.0
07:42 7.0 6.3 95 1025.2 12.1 NW 12.1 0.0 0.0
07:43 7.0 6.3 95 1025.4 9.8 E 12.1 0.0 0.0
07:44 7.0 6.3 95 1025.3 8.3 NE 12.1 0.0 0.0
07:45 7.0 6.3 95 1025.4 8.3 E 12.1 0.0 0.0
07:46 7.0 6.3 95 1025.3 10.7 N 12.1 0.0 0.0
07:47 7.0 6.3 95 1025.3 7.6 NE 12.1 0.0 0.0
07:49 7.0 6.3 95 1025.3 10.7 NE 12.1 0.0 0.0
07:50 7.0 6.3 95 1025.3 9.8 NE 12.1 0.0 0.0
07:51 7.0 6.3 95 1025.4 12.1 NE 12.1 0.0 0.0
07:52 7.0 6.3 95 1025.3 9.8 E 12.1 0.0 0.0
07:53 6.9 6.2 95 1025.4 10.7 NE 12.1 0.0 0.0
07:54 6.9 6.2 95 1025.6 9.2 E 12.1 0.0 0.0
07:55 6.9 6.2 95 1025.5 6.0 NE 12.1 0.0 0.0
07:56 6.9 6.2 95 1025.5 14.5 N 14.5 0.0 0.0
07:57 6.9 6.2 95 1025.5 15.9 E 15.9 0.0 0.0
07:58 6.9 6.2 95 1025.4 9.8 NNE 15.9 0.0 0.0
07:59 6.9 6.2 95 1025.5 8.3 NNW 15.9 0.0 0.0
08:00 6.9 6.2 95 1025.3 10.7 NE 15.9 0.0 0.0
08:01 6.9 6.2 95 1025.4 10.7 NE 15.9 0.0 0.0
08:02 6.9 6.2 95 1025.4 8.3 NE 15.9 0.0 0.0
08:04 6.9 6.2 95 1025.4 8.3 E 15.9 0.0 0.0
08:05 6.9 6.2 95 1025.4 8.3 E 15.9 0.0 0.0
08:06 6.9 6.2 95 1025.4 5.4 NE 15.9 0.0 0.0
08:07 6.9 6.2 95 1025.4 5.4 N 15.9 0.0 0.0
08:08 6.9 6.2 95 1025.5 7.6 SE 10.7 0.0 0.0
08:09 6.9 6.2 95 1025.4 11.4 NE 11.4 0.0 0.0
08:10 6.9 6.2 95 1025.5 11.4 N 11.4 0.0 0.0
08:11 6.9 6.2 95 1025.5 12.1 NE 12.1 0.0 0.0
08:12 6.9 6.2 95 1025.3 10.7 NW 12.1 0.0 0.0
08:13 6.9 6.2 95 1025.6 9.2 W 12.1 0.0 0.0
08:14 6.9 6.2 95 1025.5 6.9 NE 12.1 0.0 0.0
08:15 6.8 6.1 95 1025.6 6.9 SE 12.1 0.0 0.0
08:16 6.8 6.1 95 1025.4 6.9 NE 12.1 0.0 0.0
08:17 6.9 6.2 95 1025.5 6.0 NE 12.1 0.0 0.0
08:19 6.9 6.2 95 1025.3 9.2 ESE 12.1 0.0 0.0
08:20 6.8 6.1 95 1025.2 9.8 E 12.1 0.0 0.0
08:21 6.8 6.1 95 1025.5 9.8 E 12.1 0.0 0.0
08:22 6.8 6.1 95 1025.5 6.0 E 12.1 0.0 0.0
08:23 6.8 6.1 95 1025.4 6.0 NE 12.1 0.0 0.0
08:24 6.9 6.2 95 1025.5 4.5 E 12.1 0.0 0.0
08:25 6.9 6.2 95 1025.3 5.4 N 12.1 0.0 0.0
08:26 6.9 6.2 95 1025.6 7.6 NE 12.1 0.0 0.0
08:27 6.9 6.2 95 1025.2 7.6 W 12.1 0.0 0.0
08:28 6.9 6.2 95 1025.5 7.6 SE 12.1 0.0 0.0
08:29 6.9 6.2 95 1025.4 7.6 SE 12.1 0.0 0.0
08:30 6.9 6.2 95 1025.3 9.2 SE 12.1 0.0 0.0
08:31 6.9 6.2 95 1025.4 8.3 NE 12.1 0.0 0.0
08:33 6.9 6.2 95 1025.3 7.6 SW 12.1 0.0 0.0
08:34 6.9 6.2 95 1025.2 3.8 NE 12.1 0.0 0.0
08:35 6.9 6.2 95 1025.4 9.2 E 12.1 0.0 0.0
08:36 6.9 6.2 95 1025.4 10.7 NE 10.7 0.0 0.0
08:37 6.9 6.2 95 1025.4 10.7 NE 10.7 0.0 0.0
08:38 6.9 6.2 95 1025.4 9.8 NW 10.7 0.0 0.0
08:39 6.9 6.2 95 1025.2 10.7 E 10.7 0.0 0.0
08:40 6.9 6.2 95 1025.4 10.7 SE 10.7 0.0 0.0
08:41 6.9 6.2 95 1025.4 6.0 NE 10.7 0.0 0.0
08:42 6.9 6.2 95 1025.5 6.0 E 10.7 0.0 0.0
08:43 6.9 6.2 95 1025.4 5.4 E 10.7 0.0 0.0
08:44 6.9 6.2 95 1025.5 6.9 E 10.7 0.0 0.0
08:45 6.9 6.2 95 1025.4 7.6 NE 10.7 0.0 0.0
08:47 6.9 6.2 95 1025.6 8.3 NE 10.7 0.0 0.0
08:48 6.9 6.2 95 1025.2 13.0 SE 13.0 0.0 0.0
08:49 6.9 6.2 95 1025.5 13.0 NE 13.0 0.0 0.0
08:50 6.9 6.2 95 1025.6 8.3 N 13.0 0.0 0.0
08:51 6.9 6.2 95 1025.4 11.4 NE 13.0 0.0 0.0
08:52 6.9 6.2 95 1025.5 6.9 E 13.0 0.0 0.0
08:53 6.9 6.2 95 1025.5 6.9 NE 13.0 0.0 0.0
08:54 6.9 6.2 95 1025.5 8.3 N 13.0 0.0 0.0
08:55 6.9 6.2 95 1025.4 8.3 SW 13.0 0.0 0.0
08:56 6.9 6.2 95 1025.5 7.6 E 13.0 0.0 0.0
08:57 6.9 6.2 95 1025.6 6.9 N 13.0 0.0 0.0
08:58 6.9 6.2 95 1025.6 6.0 NE 13.0 0.0 0.0
08:59 6.9 6.2 95 1025.6 9.8 NE 11.4 0.0 0.0
09:01 6.8 6.1 95 1025.6 11.4 E 11.4 0.0 0.0
09:02 6.8 6.1 95 1025.6 11.4 E 11.4 0.0 0.0
09:03 6.8 6.1 95 1025.5 11.4 E 11.4 0.0 0.0
09:04 6.8 6.1 95 1025.6 11.4 E 11.4 0.0 0.0
09:05 6.8 6.1 95 1025.6 11.4 E 11.4 0.0 0.0
09:06 6.8 6.1 95 1025.6 11.4 E 11.4 0.0 0.0
09:07 6.8 6.1 95 1025.8 11.4 W 11.4 0.0 0.0
09:08 6.8 6.1 95 1025.5 6.0 NE 11.4 0.0 0.0
09:09 6.8 6.1 95 1025.5 13.6 N 13.6 0.0 0.0
09:10 6.8 6.1 95 1025.7 7.6 E 13.6 0.0 0.0
09:11 6.8 6.1 95 1025.8 7.6 NW 13.6 0.0 0.0
09:12 6.8 6.1 95 1025.8 4.5 NNE 13.6 0.0 0.0
09:13 6.8 6.1 95 1025.8 7.6 NE 13.6 0.0 0.0
09:14 6.8 6.1 95 1025.8 7.6 E 13.6 0.0 0.0
09:16 6.9 6.2 95 1025.8 8.3 NE 13.6 0.0 0.0
09:17 6.9 6.2 95 1025.8 8.3 NE 13.6 0.0 0.0
09:18 6.9 6.2 95 1025.8 6.9 E 13.6 0.0 0.0
09:19 6.9 6.2 95 1025.8 9.2 E 13.6 0.0 0.0
09:20 6.9 6.2 95 1025.8 9.8 E 11.4 0.0 0.0
09:21 6.9 6.2 95 1025.6 7.6 E 11.4 0.0 0.0
09:22 6.9 6.2 95 1025.6 6.9 NE 11.4 0.0 0.0
09:23 6.9 6.2 95 1025.6 6.9 NE 11.4 0.0 0.0
09:24 6.9 6.2 95 1025.7 15.2 NE 15.2 0.0 0.0
09:25 6.9 6.2 95 1025.8 15.2 NE 15.2 0.0 0.0
09:26 6.9 6.2 95 1025.7 6.9 NE 15.2 0.0 0.0
09:27 6.9 6.2 95 1025.7 6.9 SE 15.2 0.0 0.0
09:28 6.9 6.2 95 1025.8 6.9 NE 15.2 0.0 0.0
09:30 6.9 6.2 95 1025.8 7.6 NE 15.2 0.0 0.0
09:31 6.9 6.2 95 1025.7 10.7 NE 15.2 0.0 0.0
09:32 6.9 6.2 95 1025.8 10.7 NE 15.2 0.0 0.0
09:33 7.0 6.3 95 1025.7 8.3 NE 15.2 0.0 0.0
09:34 7.0 6.3 95 1025.5 17.4 E 17.4 0.0 0.0
09:35 7.0 6.3 95 1025.7 17.4 NE 17.4 0.0 0.0
09:36 7.0 6.3 95 1025.8 8.3 SE 17.4 0.0 0.0
09:37 7.0 6.3 95 1025.7 8.3 E 17.4 0.0 0.0
09:38 7.0 6.3 95 1025.9 11.4 NE 17.4 0.0 0.0
09:39 7.0 6.3 95 1025.6 8.3 NE 17.4 0.0 0.0
09:40 7.0 6.3 95 1025.5 10.7 E 17.4 0.0 0.0
09:41 7.0 6.3 95 1025.7 12.1 E 17.4 0.0 0.0
09:42 7.0 6.3 95 1025.9 12.1 NW 17.4 0.0 0.0
09:44 7.0 6.3 95 1025.7 11.4 NE 17.4 0.0 0.0
09:45 7.0 6.3 95 1025.7 11.4 NE 17.4 0.0 0.0
09:46 7.0 6.3 95 1025.6 5.4 N 13.6 0.0 0.0
09:47 7.0 6.3 95 1025.6 9.2 NE 13.6 0.0 0.0
09:48 7.0 6.3 95 1025.8 6.0 NE 13.6 0.0 0.0
09:49 7.0 6.3 95 1025.6 13.0 E 13.6 0.0 0.0
09:50 7.0 6.3 95 1025.8 9.8 NE 13.6 0.0 0.0
09:51 7.0 6.3 95 1025.8 9.8 E 13.6 0.0 0.0
09:52 7.0 6.3 95 1025.6 10.7 NE 13.6 0.0 0.0
09:53 7.0 6.3 95 1025.8 9.2 NE 13.0 0.0 0.0
09:54 7.0 6.3 95 1025.6 13.0 NE 13.0 0.0 0.0
09:55 7.0 6.3 95 1025.7 13.0 NE 13.0 0.0 0.0
09:56 7.0 6.3 95 1025.8 5.4 N 13.0 0.0 0.0
09:58 7.1 6.4 95 1025.8 15.2 NE 15.2 0.0 0.0
09:59 7.1 6.4 95 1026.0 10.7 SE 15.2 0.0 0.0
10:00 7.1 6.4 95 1025.8 7.6 NE 15.2 0.0 0.0
10:01 7.1 6.4 95 1026.2 7.6 SSE 15.2 0.0 0.0
10:02 7.1 6.4 95 1025.8 3.8 NE 15.2 0.0 0.0
10:03 7.1 6.4 95 1025.7 15.2 NE 15.2 0.0 0.0
10:04 7.2 6.5 95 1025.9 15.2 NE 15.2 0.0 0.0
10:05 7.2 6.5 95 1026.0 7.6 NE 15.2 0.0 0.0
10:06 7.2 6.5 95 1025.8 13.6 NE 15.2 0.0 0.0
10:07 7.2 6.5 95 1025.9 12.1 E 15.2 0.0 0.0
10:08 7.2 6.5 95 1025.8 9.2 E 15.2 0.0 0.0
10:10 7.2 6.5 95 1025.7 11.4 E 15.2 0.0 0.0
10:11 7.2 6.5 95 1025.7 9.8 NE 15.2 0.0 0.0
10:13 7.2 6.5 95 1025.8 15.2 NE 15.2 0.0 0.0
10:14 7.2 6.5 95 1025.9 8.3 E 15.2 0.0 0.0
10:15 7.2 6.5 95 1025.9 9.8 E 15.2 0.0 0.0
10:16 7.2 6.5 95 1025.9 10.7 N 15.2 0.0 0.0
10:17 7.2 6.5 95 1026.0 10.7 NE 15.2 0.0 0.0
10:18 7.2 6.5 95 1025.9 6.9 NE 15.2 0.0 0.0
10:19 7.2 6.5 95 1025.7 6.0 N 15.2 0.0 0.0
10:20 7.2 6.5 95 1026.0 9.2 NNW 15.2 0.0 0.0
10:21 7.2 6.5 95 1025.8 9.2 NE 15.2 0.0 0.0
10:22 7.2 6.5 95 1025.8 8.3 NE 15.2 0.0 0.0
10:23 7.2 6.5 95 1025.9 11.4 NE 15.2 0.0 0.0
10:24 7.2 6.5 95 1026.0 6.9 E 11.4 0.0 0.0
10:25 7.2 6.5 95 1025.8 14.5 NE 14.5 0.0 0.0
10:27 7.2 6.5 95 1025.8 10.7 NE 14.5 0.0 0.0
10:28 7.2 6.5 95 1025.9 8.3 NE 14.5 0.0 0.0
10:29 7.2 6.5 95 1025.8 7.6 NE 14.5 0.0 0.0
10:30 7.2 6.5 95 1025.8 9.8 NE 14.5 0.0 0.0
10:31 7.2 6.5 95 1025.8 13.6 NE 14.5 0.0 0.0
10:32 7.2 6.5 95 1026.1 8.3 NE 14.5 0.0 0.0
10:33 7.2 6.5 95 1025.9 8.3 NE 14.5 0.0 0.0
10:34 7.2 6.5 95 1025.7 13.0 NE 14.5 0.0 0.0
10:35 7.2 6.5 95 1025.8 13.0 S 14.5 0.0 0.0
10:36 7.2 6.5 95 1025.7 9.8 N 13.6 0.0 0.0
10:37 7.2 6.5 95 1026.0 9.2 E 13.6 0.0 0.0
10:38 7.2 6.5 95 1025.7 13.0 NE 13.6 0.0 0.0
10:39 7.2 6.5 95 1025.6 13.0 N 13.6 0.0 0.0
10:41 7.3 6.4 94 1025.9 6.0 E 13.0 0.0 0.0
10:42 7.3 6.4 94 1025.7 6.0 NE 13.0 0.0 0.0
10:43 7.3 6.4 94 1025.7 6.9 NE 13.0 0.0 0.0
10:44 7.3 6.4 94 1025.9 9.2 E 13.0 0.0 0.0
10:45 7.3 6.4 94 1025.8 11.4 NE 13.0 0.0 0.0
10:46 7.3 6.4 94 1026.0 8.3 NE 13.0 0.0 0.0
10:47 7.3 6.4 94 1025.8 8.3 NE 13.0 0.0 0.0
10:48 7.3 6.4 94 1026.0 7.6 NE 13.0 0.0 0.0
10:49 7.4 6.5 94 1025.7 6.9 NW 13.0 0.0 0.0
10:50 7.4 6.5 94 1025.8 9.2 NE 11.4 0.0 0.0
10:51 7.4 6.5 94 1025.9 8.3 NE 11.4 0.0 0.0
10:52 7.4 6.5 94 1025.8 7.6 NE 11.4 0.0 0.0
10:53 7.4 6.5 94 1025.7 10.7 E 11.4 0.0 0.0
10:54 7.4 6.5 94 1025.9 7.6 E 11.4 0.0 0.0
10:56 7.4 6.5 94 1025.8 8.3 NE 10.7 0.0 0.0
10:57 7.4 6.5 94 1025.8 8.3 NE 10.7 0.0 0.0
10:58 7.4 6.5 94 1025.8 9.2 SSW 10.7 0.0 0.0
10:59 7.4 6.5 94 1026.0 8.3 E 10.7 0.0 0.0
11:00 7.4 6.5 94 1026.0 9.2 NE 10.7 0.0 0.0
11:01 7.4 6.5 94 1025.9 9.2 NE 10.7 0.0 0.0
11:02 7.4 6.5 94 1025.8 9.2 NE 10.7 0.0 0.0
11:03 7.4 6.5 94 1025.8 9.2 NE 10.7 0.0 0.0
11:04 7.4 6.5 94 1025.8 9.2 NE 9.8 0.0 0.0
11:05 7.4 6.5 94 1025.6 13.0 SW 13.0 0.0 0.0
11:06 7.4 6.5 94 1025.8 10.7 SE 13.0 0.0 0.0
11:07 7.4 6.5 94 1026.0 7.6 NE 13.0 0.0 0.0
11:08 7.4 6.5 94 1025.9 7.6 E 13.0 0.0 0.0
11:09 7.4 6.5 94 1025.8 11.4 E 13.0 0.0 0.0
11:11 7.4 6.5 94 1026.0 9.8 NE 13.0 0.0 0.0
11:12 7.4 6.5 94 1025.7 13.6 NE 13.6 0.0 0.0
11:13 7.4 6.5 94 1025.6 7.6 N 13.6 0.0 0.0
11:14 7.4 6.5 94 1026.0 4.5 E 13.6 0.0 0.0
11:15 7.4 6.3 93 1025.8 9.8 NE 13.6 0.0 0.0
11:17 7.4 6.3 93 1025.8 13.0 NE 13.6 0.0 0.0
11:18 7.4 6.3 93 1025.8 7.6 NE 13.6 0.0 0.0
11:19 7.4 6.3 93 1025.7 9.8 E 13.6 0.0 0.0
11:20 7.4 6.3 93 1025.9 9.8 WSW 13.6 0.0 0.0
11:21 7.4 6.3 93 1025.7 11.4 NE 13.6 0.0 0.0
11:22 7.4 6.3 93 1025.8 8.3 NE 13.6 0.0 0.0
11:23 7.4 6.3 93 1025.7 11.4 E 13.0 0.0 0.0
11:24 7.4 6.3 93 1025.7 9.2 NE 13.0 0.0 0.0
11:25 7.4 6.3 93 1025.8 6.9 E 13.0 0.0 0.0
11:26 7.4 6.3 93 1025.8 6.0 NNW 13.0 0.0 0.0
11:27 7.5 5.8 89 1025.8 3.8 SE 13.0 0.0 0.0
11:28 7.5 5.8 89 1025.9 5.4 NE 11.4 0.0 0.0
11:29 7.5 5.8 89 1026.0 8.3 NE 11.4 0.0 0.0
11:31 7.5 5.8 89 1025.9 6.9 E 11.4 0.0 0.0
11:32 7.5 5.6 88 1025.8 13.6 NE 13.6 0.0 0.0
11:33 7.5 5.6 88 1026.0 13.6 E 13.6 0.0 0.0
11:34 7.5 5.6 88 1026.1 9.2 NE 13.6 0.0 0.0
11:35 7.5 5.6 88 1025.9 6.9 E 13.6 0.0 0.0
11:36 7.5 5.6 88 1026.1 5.4 NE 13.6 0.0 0.0
11:37 7.5 5.6 88 1025.9 7.6 NE 13.6 0.0 0.0
11:38 7.5 5.6 88 1026.2 9.8 N 13.6 0.0 0.0
11:39 7.5 5.6 88 1026.1 7.6 N 13.6 0.0 0.0
11:40 7.5 5.6 88 1026.1 10.7 NE 13.6 0.0 0.0
11:41 7.5 5.6 88 1026.0 8.3 NE 13.6 0.0 0.0
11:42 7.5 5.6 88 1026.1 3.8 NE 13.6 0.0 0.0
11:43 7.5 5.6 88 1025.9 3.8 NE 10.7 0.0 0.0
11:45 7.5 5.6 88 1026.0 6.0 SW 10.7 0.0 0.0
11:46 7.6 5.7 88 1026.2 3.1 W 10.7 0.0 0.0
11:47 7.6 5.7 88 1026.0 10.7 SE 10.7 0.0 0.0
11:48 7.6 5.7 88 1026.1 13.0 E 13.0 0.0 0.0
11:49 7.6 5.7 88 1026.2 13.0 E 13.0 0.0 0.0
11:50 7.5 5.6 88 1025.9 10.7 N 13.0 0.0 0.0
11:51 7.5 5.6 88 1026.2 7.6 NE 13.0 0.0 0.0
11:52 7.5 5.6 88 1026.0 6.0 W 13.0 0.0 0.0
11:53 7.5 5.5 87 1025.8 7.6 NE 13.0 0.0 0.0
11:54 7.4 6.2 92 1025.8 9.2 N 13.0 0.0 0.0
11:55 7.4 6.2 92 1025.9 7.6 ESE 13.0 0.0 0.0
11:56 7.4 6.2 92 1025.9 7.6 NE 13.0 0.0 0.0
11:57 7.4 6.2 92 1025.8 6.0 NE 13.0 0.0 0.0
11:59 7.4 6.2 92 1026.1 13.0 W 13.0 0.0 0.0
12:00 7.4 6.2 92 1025.8 10.7 N 13.0 0.0 0.0
12:01 7.4 6.2 92 1025.8 10.7 N 13.0 0.0 0.0
12:02 7.4 6.2 92 1026.1 10.7 N 13.0 0.0 0.0
12:03 7.4 6.2 92 1025.8 10.7 N 13.0 0.0 0.0
12:04 7.4 6.2 92 1025.8 10.7 N 13.0 0.0 0.0
12:05 7.4 6.2 92 1025.8 10.7 N 13.0 0.0 0.0
12:06 7.4 6.2 92 1025.7 9.8 N 14.5 0.0 0.0
12:07 7.4 6.2 92 1025.8 9.8 NE 14.5 0.0 0.0
12:08 7.4 6.2 92 1025.8 13.6 E 14.5 0.0 0.0
12:09 7.5 5.5 87 1025.8 7.6 NE 14.5 0.0 0.0
12:10 7.5 5.5 87 1026.1 7.6 N 14.5 0.0 0.0
12:11 7.5 5.5 87 1025.7 6.9 NE 14.5 0.0 0.0
12:12 7.6 5.6 87 1025.9 9.8 NE 14.5 0.0 0.0
12:14 7.6 5.6 87 1025.8 10.7 E 14.5 0.0 0.0
12:15 7.6 5.6 87 1025.7 13.6 NE 14.5 0.0 0.0
12:16 7.6 5.6 87 1025.8 13.6 NE 13.6 0.0 0.0
12:17 7.6 5.6 87 1025.7 12.1 NE 13.6 0.0 0.0
12:18 7.6 5.6 87 1025.8 9.2 NW 13.6 0.0 0.0
12:19 7.6 5.6 87 1025.8 8.3 NE 13.6 0.0 0.0
12:20 7.6 5.6 87 1026.0 8.3 E 13.6 0.0 0.0
12:21 7.6 5.6 87 1025.8 8.3 SE 13.6 0.0 0.0
12:22 7.7 5.7 87 1025.6 10.7 E 13.6 0.0 0.0
12:23 7.7 5.7 87 1025.8 10.7 E 13.6 0.0 0.0
12:24 7.8 5.8 87 1025.7 15.9 NE 15.9 0.0 0.0
12:25 7.8 5.8 87 1025.6 14.5 NE 15.9 0.0 0.0
12:26 7.8 5.8 87 1025.7 14.5 NNE 15.9 0.0 0.0
12:27 7.8 5.6 86 1025.7 6.9 SE 15.9 0.0 0.0
12:29 8.0 5.8 86 1025.7 5.4 SE 15.9 0.0 0.0
12:30 8.0 5.8 86 1025.6 8.3 N 15.9 0.0 0.0
12:31 8.0 5.8 86 1025.3 5.4 E 15.9 0.0 0.0
12:32 8.0 5.8 86 1025.6 8.3 NE 15.9 0.0 0.0
12:33 8.1 5.9 86 1025.6 10.7 N 15.9 0.0 0.0
12:34 8.1 5.9 86 1025.7 11.4 NW 15.9 0.0 0.0
12:35 8.0 5.8 86 1025.5 11.4 NE 14.5 0.0 0.0
12:36 8.0 5.8 86 1025.4 9.2 NE 14.5 0.0 0.0
12:37 8.0 5.8 86 1025.4 9.2 N 11.4 0.0 0.0
12:38 8.0 5.6 85 1025.4 7.6 NE 11.4 0.0 0.0
12:39 8.0 5.6 85 1025.4 5.4 ESE 11.4 0.0 0.0
12:40 8.2 5.8 85 1025.5 10.7 NE 11.4 0.0 0.0
12:41 8.2 5.8 85 1025.5 9.2 E 11.4 0.0 0.0
12:42 8.2 5.8 85 1025.6 9.2 E 11.4 0.0 0.0
12:44 8.3 5.9 85 1025.5 8.3 N 12.1 0.0 0.0
12:45 8.3 5.9 85 1025.4 6.0 NE 12.1 0.0 0.0
12:46 8.3 5.9 85 1025.3 6.9 N 12.1 0.0 0.0
12:47 8.3 5.9 85 1025.4 10.7 N 12.1 0.0 0.0
12:48 8.3 5.9 85 1025.4 10.7 NE 12.1 0.0 0.0
12:49 8.3 5.9 85 1025.4 6.9 E 12.1 0.0 0.0
12:50 8.3 5.9 85 1025.6 5.4 NE 12.1 0.0 0.0
12:51 8.3 5.9 85 1025.5 4.5 NE 12.1 0.0 0.0
12:52 8.3 5.9 85 1025.3 6.9 E 12.1 0.0 0.0
12:53 8.3 5.8 84 1025.3 12.1 NE 12.1 0.0 0.0
12:54 8.3 5.8 84 1025.3 6.9 NE 12.1 0.0 0.0
12:55 8.3 5.8 84 1025.2 4.5 E 12.1 0.0 0.0
12:56 8.3 5.8 84 1025.3 9.2 NE 12.1 0.0 0.0
12:57 8.3 5.8 84 1025.3 10.7 N 12.1 0.0 0.0
12:59 8.3 5.8 84 1025.5 8.3 N 12.1 0.0 0.0
13:00 8.3 5.8 84 1025.3 7.6 NE 12.1 0.0 0.0
13:01 8.3 5.8 84 1025.3 7.6 NE 12.1 0.0 0.0
13:02 8.3 5.8 84 1025.3 7.6 NE 12.1 0.0 0.0
13:03 8.3 5.8 84 1025.5 7.6 NE 12.1 0.0 0.0
13:04 8.3 5.8 84 1025.1 7.6 NE 10.7 0.0 0.0
13:05 8.3 5.8 84 1025.6 7.6 NE 10.7 0.0 0.0
13:06 8.1 5.6 84 1025.3 8.3 E 15.9 0.0 0.0
13:07 8.1 5.6 84 1025.2 7.6 NE 15.9 0.0 0.0
13:08 8.1 5.6 84 1025.2 6.9 NE 15.9 0.0 0.0
13:09 8.0 5.5 84 1025.3 7.6 W 15.9 0.0 0.0
13:10 8.0 5.5 84 1025.1 6.9 N 15.9 0.0 0.0
13:11 8.0 5.5 84 1025.3 6.0 NW 15.9 0.0 0.0
13:12 8.0 5.5 84 1025.2 9.8 N 15.9 0.0 0.0
13:13 8.0 5.5 84 1025.3 11.4 NE 15.9 0.0 0.0
13:14 8.0 5.5 84 1025.2 5.4 NNW 15.9 0.0 0.0
13:15 8.0 5.5 84 1025.3 6.0 NE 15.9 0.0 0.0
13:16 7.9 5.4 84 1025.3 6.9 N 11.4 0.0 0.0
13:17 7.9 5.4 84 1025.2 4.5 SE 11.4 0.0 0.0
13:18 7.9 5.4 84 1025.3 6.9 NE 11.4 0.0 0.0
13:20 7.9 5.4 84 1025.4 9.2 E 11.4 0.0 0.0
13:21 7.9 5.4 84 1025.4 9.2 E 11.4 0.0 0.0
13:22 7.9 5.4 84 1025.0 9.2 N 11.4 0.0 0.0
13:23 7.9 5.4 84 1025.3 6.9 NE 11.4 0.0 0.0
13:24 7.9 5.4 84 1025.3 6.0 S 9.2 0.0 0.0
13:25 8.0 5.5 84 1025.3 4.5 N 9.2 0.0 0.0
13:26 8.0 5.5 84 1025.2 12.1 ESE 12.1 0.0 0.0
13:27 8.0 5.5 84 1025.2 12.1 E 12.1 0.0 0.0
13:28 8.0 5.5 84 1025.2 11.4 NE 12.1 0.0 0.0
13:29 8.0 5.5 84 1025.2 8.3 NE 12.1 0.0 0.0
13:30 8.0 5.5 84 1025.1 6.9 E 12.1 0.0 0.0
13:31 8.1 5.6 84 1025.1 8.3 E 12.1 0.0 0.0
13:32 8.1 5.6 84 1025.1 11.4 E 12.1 0.0 0.0
13:34 8.2 5.7 84 1024.9 10.7 ENE 12.1 0.0 0.0
13:35 8.2 5.7 84 1024.9 9.2 E 12.1 0.0 0.0
13:36 8.2 5.7 84 1025.1 8.3 E 12.1 0.0 0.0
13:37 8.2 5.7 84 1025.0 8.3 N 12.1 0.0 0.0
13:38 8.2 5.7 84 1025.1 8.3 E 11.4 0.0 0.0
13:39 8.3 5.8 84 1025.0 8.3 NE 11.4 0.0 0.0
13:40 8.3 5.8 84 1025.0 8.3 S 11.4 0.0 0.0
13:41 8.4 5.9 84 1025.2 7.6 SW 11.4 0.0 0.0
13:42 8.4 5.9 84 1024.9 6.9 NW 11.4 0.0 0.0
13:43 8.4 5.9 84 1025.0 7.6 NE 10.7 0.0 0.0
13:44 8.4 5.9 84 1025.2 13.0 E 13.0 0.0 0.0
13:45 8.4 5.9 84 1025.2 13.0 E 13.0 0.0 0.0
13:46 8.4 5.7 83 1025.1 9.8 N 13.0 0.0 0.0
13:47 8.4 5.7 83 1025.1 10.7 N 13.0 0.0 0.0
13:48 8.4 5.7 83 1025.1 11.4 NE 13.0 0.0 0.0
13:50 8.5 5.8 83 1025.1 10.7 E 13.0 0.0 0.0
13:51 8.5 5.8 83 1025.3 9.8 NE 13.0 0.0 0.0
13:52 8.5 5.8 83 1024.9 9.8 NE 13.0 0.0 0.0
13:53 8.5 5.8 83 1025.0 9.8 NE 13.0 0.0 0.0
13:54 8.5 5.8 83 1024.8 9.2 NE 13.0 0.0 0.0
13:55 8.5 5.8 83 1025.2 8.3 NE 13.0 0.0 0.0
13:56 8.5 5.8 83 1025.3 7.6 E 11.4 0.0 0.0
13:57 8.5 5.8 83 1025.2 9.2 E 11.4 0.0 0.0
13:58 8.6 5.9 83 1025.1 7.6 SW 11.4 0.0 0.0
13:59 8.6 5.9 83 1025.1 7.6 SW 10.7 0.0 0.0
14:00 8.7 6.0 83 1025.2 11.4 NE 11.4 0.0 0.0
14:01 8.7 6.0 83 1025.1 11.4 NE 11.4 0.0 0.0
14:02 8.7 6.0 83 1025.0 12.1 E 12.1 0.0 0.0
14:04 8.7 6.0 83 1025.2 8.3 NE 14.5 0.0 0.0
14:05 8.7 6.0 83 1025.2 8.3 NE 14.5 0.0 0.0
14:06 8.7 5.8 82 1025.1 13.0 NE 14.5 0.0 0.0
14:07 8.7 5.8 82 1025.0 9.8 E 14.5 0.0 0.0
14:08 8.7 5.8 82 1025.1 9.8 NE 14.5 0.0 0.0
14:09 8.7 5.8 82 1025.1 9.2 N 14.5 0.0 0.0
14:10 8.7 5.8 82 1024.9 7.6 NE 14.5 0.0 0.0
14:11 8.7 5.8 82 1025.2 11.4 NE 14.5 0.0 0.0
14:12 8.7 5.8 82 1025.1 5.4 SE 14.5 0.0 0.0
14:13 8.7 5.8 82 1025.0 3.8 SW 14.5 0.0 0.0
14:14 8.7 5.8 82 1024.9 8.3 NE 13.0 0.0 0.0
14:15 8.7 5.8 82 1024.9 8.3 NE 13.0 0.0 0.0
14:16 8.8 5.9 82 1024.9 9.2 NE 11.4 0.0 0.0
14:17 8.8 5.9 82 1025.1 7.6 NE 11.4 0.0 0.0
14:18 8.9 6.0 82 1024.9 6.9 E 11.4 0.0 0.0
14:20 9.0 6.3 83 1025.2 11.4 N 11.4 0.0 0.0
14:21 9.0 6.1 82 1024.9 13.0 SE 13.0 0.0 0.0
14:22 8.9 6.0 82 1024.8 13.6 N 13.6 0.0 0.0
14:23 8.9 6.0 82 1024.9 12.1 E 13.6 0.0 0.0
14:24 8.9 6.0 82 1024.8 12.1 N 13.6 0.0 0.0
14:25 8.9 6.0 82 1024.7 6.9 NE 13.6 0.0 0.0
14:26 9.0 6.1 82 1025.0 9.2 NW 13.6 0.0 0.0
14:27 9.0 6.1 82 1025.1 6.0 N 13.6 0.0 0.0
14:28 9.0 6.1 82 1024.8 12.1 E 13.6 0.0 0.0
14:29 9.0 6.1 82 1024.8 9.2 N 13.6 0.0 0.0
14:30 9.0 6.1 82 1024.9 12.1 S 13.6 0.0 0.0
14:31 9.0 6.1 82 1024.9 10.7 NE 13.6 0.0 0.0
14:32 8.9 6.0 82 1024.8 11.4 NE 13.6 0.0 0.0
14:33 8.9 6.0 82 1024.9 11.4 NE 12.1 0.0 0.0
14:35 8.8 5.7 81 1024.8 11.4 E 12.1 0.0 0.0
14:36 8.8 5.7 81 1025.0 9.2 NE 12.1 0.0 0.0
14:37 8.7 5.6 81 1024.7 6.0 E 12.1 0.0 0.0
14:38 8.7 5.8 82 1024.7 11.4 NE 12.1 0.0 0.0
14:39 8.7 5.8 82 1024.8 7.6 NE 12.1 0.0 0.0
14:40 8.8 5.9 82 1024.7 8.3 N 12.1 0.0 0.0
14:41 8.8 5.9 82 1024.8 6.9 W 12.1 0.0 0.0
14:42 8.9 6.0 82 1024.6 9.8 NNE 12.1 0.0 0.0
14:43 8.8 5.9 82 1025.0 14.5 NE 14.5 0.0 0.0
14:44 8.9 6.0 82 1024.8 5.4 N 14.5 0.0 0.0
14:45 9.0 6.1 82 1024.8 5.4 E 14.5 0.0 0.0
14:46 9.0 6.1 82 1024.7 8.3 NW 14.5 0.0 0.0
14:47 9.0 6.1 82 1024.7 11.4 E 14.5 0.0 0.0
14:48 9.1 6.2 82 1024.8 11.4 NE 14.5 0.0 0.0
14:49 9.1 6.2 82 1024.8 9.8 NW 14.5 0.0 0.0
14:51 9.1 6.2 82 1024.7 10.7 E 14.5 0.0 0.0
14:52 9.0 6.1 82 1024.6 10.7 N 14.5 0.0 0.0
14:53 9.1 6.2 82 1024.8 4.5 NE 14.5 0.0 0.0
14:54 9.1 6.2 82 1024.6 5.4 E 11.4 0.0 0.0
14:55 9.2 6.3 82 1024.5 12.1 E 12.1 0.0 0.0
14:56 9.2 6.3 82 1024.5 7.6 E 12.1 0.0 0.0
14:57 9.2 6.3 82 1024.8 13.6 NE 13.6 0.0 0.0
14:58 9.2 6.3 82 1024.8 11.4 NE 13.6 0.0 0.0
14:59 9.1 6.0 81 1024.7 11.4 N 13.6 0.0 0.0
15:00 9.1 6.0 81 1024.7 6.0 NE 13.6 0.0 0.0
15:01 9.1 6.0 81 1024.9 6.0 NE 13.6 0.0 0.0
15:02 9.1 6.0 81 1024.5 6.0 NE 13.6 0.0 0.0
15:03 9.1 6.0 81 1024.7 6.0 NE 13.6 0.0 0.0
15:04 9.1 6.0 81 1024.9 6.0 NE 13.6 0.0 0.0
15:06 8.9 5.8 81 1024.6 12.1 NE 13.6 0.0 0.0
15:07 8.9 5.8 81 1024.7 9.8 NE 13.6 0.0 0.0
15:08 8.9 5.8 81 1024.7 9.8 NE 12.1 0.0 0.0
15:09 8.9 5.8 81 1024.6 11.4 E 12.1 0.0 0.0
15:10 8.8 5.7 81 1024.8 8.3 NE 12.1 0.0 0.0
15:11 8.7 5.6 81 1024.5 7.6 N 12.1 0.0 0.0
15:12 8.7 5.6 81 1024.8 12.1 E 12.1 0.0 0.0
15:13 8.7 5.6 81 1024.8 12.1 NE 12.1 0.0 0.0
15:14 8.7 5.8 82 1024.8 9.2 E 12.1 0.0 0.0
15:15 8.7 5.8 82 1024.8 10.7 NE 12.1 0.0 0.0
15:16 8.7 5.8 82 1024.9 10.7 W 12.1 0.0 0.0
15:17 8.7 5.8 82 1024.8 6.0 N 12.1 0.0 0.0
15:18 8.7 5.8 82 1024.7 6.0 NE 12.1 0.0 0.0
15:19 8.7 5.8 82 1025.0 9.2 E 12.1 0.0 0.0
15:20 8.6 5.7 82 1024.6 11.4 SE 12.1 0.0 0.0
15:21 8.6 5.7 82 1024.7 11.4 SE 12.1 0.0 0.0
15:22 8.6 5.7 82 1024.9 11.4 SE 12.1 0.0 0.0
15:23 8.6 5.7 82 1024.8 8.3 NE 11.4 0.0 0.0
15:25 8.5 5.6 82 1024.8 10.7 E 12.1 0.0 0.0
15:26 8.5 5.6 82 1024.7 10.7 NW 12.1 0.0 0.0
15:27 8.5 5.6 82 1024.7 6.9 ENE 12.1 0.0 0.0
15:28 8.5 5.6 82 1024.6 4.5 W 12.1 0.0 0.0
15:29 8.5 5.6 82 1024.5 7.6 NE 12.1 0.0 0.0
15:30 8.4 5.5 82 1024.8 8.3 E 12.1 0.0 0.0
15:31 8.4 5.5 82 1024.9 14.5 SE 14.5 0.0 0.0
15:32 8.4 5.5 82 1024.8 9.2 SE 14.5 0.0 0.0
15:33 8.4 5.5 82 1024.8 7.6 NW 14.5 0.0 0.0
15:34 8.5 5.6 82 1024.8 9.2 E 14.5 0.0 0.0
15:35 8.4 5.5 82 1024.7 9.2 NE 14.5 0.0 0.0
15:36 8.4 5.5 82 1024.6 10.7 E 14.5 0.0 0.0
15:37 8.4 5.5 82 1024.6 10.7 N 14.5 0.0 0.0
15:38 8.4 5.5 82 1024.4 11.4 S 14.5 0.0 0.0
15:40 8.3 5.4 82 1024.7 10.7 NE 14.5 0.0 0.0
15:41 8.3 5.4 82 1024.7 10.7 NE 14.5 0.0 0.0
15:42 8.3 5.4 82 1024.6 13.0 NE 13.0 0.0 0.0
15:43 8.3 5.4 82 1024.7 13.0 SW 13.0 0.0 0.0
15:44 8.3 5.4 82 1024.7 8.3 SW 13.0 0.0 0.0
15:45 8.3 5.4 82 1024.7 10.7 NE 13.0 0.0 0.0
15:46 8.3 5.4 82 1024.6 11.4 S 13.0 0.0 0.0
15:47 8.3 5.4 82 1024.6 11.4 NE 13.0 0.0 0.0
15:48 8.3 5.4 82 1024.6 8.3 S 13.0 0.0 0.0
15:49 8.3 5.4 82 1024.8 6.9 NW 13.0 0.0 0.0
15:50 8.3 5.4 82 1024.7 7.6 N 13.0 0.0 0.0
15:51 8.3 5.4 82 1024.9 8.3 E 13.0 0.0 0.0
15:52 8.2 5.3 82 1024.7 10.7 E 13.0 0.0 0.0
15:53 8.2 5.3 82 1024.7 9.2 W 11.4 0.0 0.0
15:54 8.2 5.3 82 1024.6 9.2 NE 11.4 0.0 0.0
15:55 8.2 5.3 82 1024.7 9.8 NE 11.4 0.0 0.0
15:56 8.1 5.2 82 1024.7 9.2 E 11.4 0.0 0.0
15:58 8.1 5.2 82 1024.4 8.3 E 10.7 0.0 0.0
15:59 8.1 5.2 82 1024.7 9.2 SE 10.7 0.0 0.0
16:00 8.1 5.2 82 1024.8 6.0 E 10.7 0.0 0.0
16:01 8.1 5.2 82 1024.7 6.0 E 10.7 0.0 0.0
16:02 8.1 5.2 82 1024.9 6.0 E 10.7 0.0 0.0
16:03 8.1 5.2 82 1024.5 6.0 E 9.8 0.0 0.0
16:04 8.1 5.2 82 1024.5 6.0 E 9.8 0.0 0.0
16:05 8.1 5.2 82 1024.6 6.0 E 9.8 0.0 0.0
16:06 8.0 5.1 82 1024.7 7.6 ENE 13.0 0.0 0.0
16:07 8.0 5.3 83 1024.5 11.4 W 13.0 0.0 0.0
16:08 8.0 5.3 83 1024.4 7.6 N 13.0 0.0 0.0
16:09 8.0 5.3 83 1024.6 10.7 NE 13.0 0.0 0.0
16:10 8.0 5.3 83 1024.7 10.7 N 13.0 0.0 0.0
16:11 8.0 5.3 83 1024.4 13.6 NE 13.6 0.0 0.0
16:12 8.0 5.3 83 1024.4 9.8 N 13.6 0.0 0.0
16:14 7.9 5.2 83 1024.4 8.3 ENE 13.6 0.0 0.0
16:15 7.9 5.2 83 1024.6 11.4 N 13.6 0.0 0.0
16:16 7.9 5.2 83 1024.6 11.4 NE 13.6 0.0 0.0
16:17 7.9 5.2 83 1024.5 11.4 NE 13.6 0.0 0.0
16:18 7.9 5.2 83 1024.3 7.6 S 13.6 0.0 0.0
16:19 7.8 5.1 83 1024.5 6.9 NW 13.6 0.0 0.0
16:20 7.8 5.1 83 1024.7 5.4 E 13.6 0.0 0.0
16:21 7.8 5.1 83 1024.6 10.7 SW 13.6 0.0 0.0
16:22 7.8 5.1 83 1024.5 11.4 NE 11.4 0.0 0.0
16:23 7.8 5.1 83 1024.6 11.4 NE 11.4 0.0 0.0
16:24 7.8 5.1 83 1024.8 7.6 N 11.4 0.0 0.0
16:25 7.8 5.1 83 1024.6 6.0 NW 11.4 0.0 0.0
16:26 7.8 5.1 83 1024.7 8.3 E 11.4 0.0 0.0
16:27 7.8 5.1 83 1024.5 8.3 E 11.4 0.0 0.0
16:28 7.7 5.0 83 1024.8 13.0 NE 13.0 0.0 0.0
16:29 7.7 5.0 83 1024.6 13.0 SE 13.0 0.0 0.0
16:31 7.7 5.0 83 1024.8 9.8 SW 13.0 0.0 0.0
16:32 7.7 5.0 83 1024.7 5.4 NE 13.0 0.0 0.0
16:33 7.7 5.0 83 1024.6 6.9 SE 13.0 0.0 0.0
16:34 7.7 5.0 83 1024.8 7.6 NE 13.0 0.0 0.0
16:35 7.7 5.0 83 1024.8 9.2 NE 13.0 0.0 0.0
16:36 7.6 4.9 83 1024.6 6.9 N 13.0 0.0 0.0
16:37 7.6 4.9 83 1024.7 6.9 NE 13.0 0.0 0.0
16:38 7.6 4.9 83 1024.8 9.2 E 13.0 0.0 0.0
16:39 7.6 4.9 83 1024.6 8.3 E 13.0 0.0 0.0
16:40 7.6 4.9 83 1024.6 8.3 NE 10.7 0.0 0.0
16:41 7.6 4.9 83 1024.6 8.3 E 10.7 0.0 0.0
16:42 7.6 4.9 83 1024.6 8.3 E 10.7 0.0 0.0
16:43 7.6 4.9 83 1024.7 10.7 E 10.7 0.0 0.0
16:44 7.6 4.9 83 1024.7 12.1 E 12.1 0.0 0.0
16:46 7.6 4.9 83 1024.5 13.6 NE 13.6 0.0 0.0
16:47 7.5 4.8 83 1024.3 12.1 NE 13.6 0.0 0.0
16:48 7.5 4.8 83 1024.6 10.7 NE 13.6 0.0 0.0
16:49 7.5 4.8 83 1024.6 13.0 NE 13.6 0.0 0.0
16:50 7.5 5.0 84 1024.7 13.0 E 13.6 0.0 0.0
16:51 7.4 5.9 90 1024.5 13.6 NE 13.6 0.0 0.0
16:52 7.4 5.9 90 1024.5 13.6 NE 13.6 0.0 0.0
16:53 7.4 5.9 90 1024.6 8.3 NE 13.6 0.0 0.0
16:54 7.4 5.9 90 1024.8 5.4 E 13.6 0.0 0.0
16:55 7.4 5.9 90 1024.7 12.1 NE 13.6 0.0 0.0
16:56 7.4 5.9 90 1024.7 9.2 E 13.6 0.0 0.0
16:57 7.4 5.9 90 1024.7 8.3 NE 13.6 0.0 0.0
16:58 7.4 5.9 90 1024.5 11.4 E 13.6 0.0 0.0
16:59 7.4 5.9 90 1024.4 13.6 N 13.6 0.0 0.0
17:00 7.4 5.9 90 1024.4 12.1 SE 13.6 0.0 0.0
17:02 7.4 5.9 90 1024.5 12.1 SE 13.6 0.0 0.0
17:03 7.4 5.9 90 1024.8 12.1 SE 13.6 0.0 0.0
17:04 7.4 5.9 90 1024.6 12.1 SE 13.6 0.0 0.0
17:05 7.4 5.9 90 1024.7 12.1 SE 13.6 0.0 0.0
17:06 7.3 5.8 90 1024.5 15.2 NE 16.8 0.0 0.0
17:07 7.3 5.8 90 1024.6 15.2 NW 16.8 0.0 0.0
17:08 7.3 5.8 90 1024.5 9.2 ENE 16.8 0.0 0.0
17:09 7.3 5.8 90 1024.5 10.7 NE 16.8 0.0 0.0
17:10 7.3 5.8 90 1024.4 5.4 NE 16.8 0.0 0.0
17:11 7.3 5.8 90 1024.4 11.4 E 16.8 0.0 0.0
17:12 7.3 5.8 90 1024.5 10.7 NE 16.8 0.0 0.0
17:13 7.3 5.8 90 1024.3 6.9 NE 16.8 0.0 0.0
17:14 7.3 5.8 90 1024.7 6.9 E 16.8 0.0 0.0
17:16 7.3 5.8 90 1024.5 8.3 E 15.2 0.0 0.0
17:17 7.3 5.8 90 1024.6 8.3 E 15.2 0.0 0.0
17:18 7.3 5.9 91 1024.7 10.7 W 11.4 0.0 0.0
17:19 7.3 5.9 91 1024.4 10.7 E 11.4 0.0 0.0
17:20 7.3 5.9 91 1024.4 15.9 NE 15.9 0.0 0.0
17:21 7.2 5.8 91 1024.5 8.3 N 15.9 0.0 0.0
17:22 7.2 5.8 91 1024.4 9.2 NE 15.9 0.0 0.0
17:23 7.2 5.8 91 1024.8 10.7 NE 15.9 0.0 0.0
17:24 7.2 5.8 91 1024.5 9.2 NW 15.9 0.0 0.0
17:26 7.2 5.8 91 1024.6 13.6 NE 15.9 0.0 0.0
17:27 7.2 5.8 91 1024.5 9.2 NE 15.9 0.0 0.0
17:28 7.2 5.8 91 1024.5 13.0 NE 15.9 0.0 0.0
17:29 7.2 5.8 91 1024.7 13.0 ENE 15.9 0.0 0.0
17:30 7.2 5.8 91 1024.6 13.0 E 15.9 0.0 0.0
17:31 7.2 5.8 91 1024.5 9.2 NE 15.9 0.0 0.0
17:32 7.2 5.8 91 1024.6 9.8 NE 13.6 0.0 0.0
17:33 7.2 5.8 91 1024.7 12.1 E 13.6 0.0 0.0
17:34 7.2 5.8 91 1024.6 9.8 E 13.6 0.0 0.0
17:35 7.2 5.8 91 1024.9 9.8 E 13.6 0.0 0.0
17:36 7.2 5.8 91 1025.0 10.7 S 13.6 0.0 0.0
17:37 7.2 5.8 91 1024.8 9.2 E 13.6 0.0 0.0
17:38 7.2 5.8 91 1024.7 9.2 NE 13.6 0.0 0.0
17:39 7.2 5.8 91 1025.0 8.3 NW 13.6 0.0 0.0
17:40 7.2 5.8 91 1024.6 10.7 NE 12.1 0.0 0.0
17:41 7.2 5.8 91 1024.6 9.2 NE 12.1 0.0 0.0
17:43 7.2 5.8 91 1024.6 12.1 N 12.1 0.0 0.0
17:44 7.2 5.8 91 1024.7 8.3 NE 12.1 0.0 0.0
17:45 7.2 5.8 91 1024.6 11.4 SSE 12.1 0.0 0.0
17:46 7.2 5.8 91 1024.6 12.1 NE 12.1 0.0 0.0
17:47 7.2 5.8 91 1024.7 15.2 NE 15.2 0.0 0.0
17:48 7.2 5.8 91 1024.8 15.2 NE 15.2 0.0 0.0
17:49 7.2 5.8 91 1024.8 9.8 NE 15.2 0.0 0.0
17:50 7.2 5.8 91 1024.7 9.8 NE 15.2 0.0 0.0
17:51 7.2 5.8 91 1024.6 12.1 N 15.2 0.0 0.0
17:52 7.2 5.8 91 1024.8 9.8 NE 15.2 0.0 0.0
17:53 7.2 5.8 91 1024.6 11.4 NE 15.2 0.0 0.0
17:54 7.2 5.8 91 1024.7 12.1 NE 15.2 0.0 0.0
17:55 7.2 5.8 91 1024.7 11.4 E 15.2 0.0 0.0
17:56 7.1 5.7 91 1024.8 9.2 NE 15.2 0.0 0.0
17:57 7.1 5.7 91 1024.6 13.0 NE 15.2 0.0 0.0
17:58 7.1 5.7 91 1024.6 10.7 E 13.0 0.0 0.0
17:59 7.1 5.7 91 1024.5 8.3 S 13.0 0.0 0.0
18:01 7.1 5.7 91 1024.5 8.3 S 13.0 0.0 0.0
18:02 7.1 5.7 91 1024.5 8.3 S 13.0 0.0 0.0
18:03 7.1 5.7 91 1024.6 8.3 S 13.0 0.0 0.0
18:04 7.1 5.7 91 1024.7 8.3 S 13.0 0.0 0.0
18:05 7.1 5.7 91 1024.6 8.3 S 13.0 0.0 0.0
18:06 7.1 5.9 92 1024.5 10.7 E 13.0 0.0 0.0
18:07 7.1 5.9 92 1024.7 11.4 NE 13.0 0.0 0.0
18:08 7.1 5.9 92 1024.5 11.4 NE 11.4 0.0 0.0
18:09 7.1 5.9 92 1024.6 11.4 NE 11.4 0.0 0.0
18:10 7.1 5.9 92 1024.6 8.3 N 11.4 0.0 0.0
18:11 7.1 5.9 92 1024.5 8.3 N 11.4 0.0 0.0
18:12 7.1 5.9 92 1024.6 7.6 NE 11.4 0.0 0.0
18:13 7.1 5.9 92 1024.6 12.1 NE 12.1 0.0 0.0
18:14 7.1 5.9 92 1024.5 12.1 NE 12.1 0.0 0.0
18:16 7.1 5.9 92 1024.7 11.4 NE 13.0 0.0 0.0
18:17 7.1 5.9 92 1024.7 11.4 W 13.0 0.0 0.0
18:18 7.1 5.9 92 1024.9 11.4 W 13.0 0.0 0.0
18:19 7.1 5.9 92 1024.7 15.2 E 15.2 0.0 0.0
18:20 7.1 5.9 92 1024.7 15.2 E 15.2 0.0 0.0
18:21 7.0 5.8 92 1024.7 14.5 NE 15.2 0.0 0.0
18:22 7.0 5.8 92 1024.6 9.8 N 15.2 0.0 0.0
18:23 7.0 5.8 92 1024.6 8.3 NE 15.2 0.0 0.0
18:24 7.0 5.8 92 1024.7 8.3 NE 15.2 0.0 0.0
18:25 7.0 5.8 92 1024.7 8.3 NE 15.2 0.0 0.0
18:26 7.0 5.8 92 1024.7 9.2 NE 15.2 0.0 0.0
18:27 7.0 5.8 92 1024.9 9.2 NE 15.2 0.0 0.0
18:28 7.0 5.8 92 1024.9 13.0 NE 15.2 0.0 0.0
18:29 7.0 5.8 92 1024.7 13.0 NE 15.2 0.0 0.0
18:30 7.0 5.8 92 1024.8 13.0 NE 14.5 0.0 0.0
18:31 7.0 5.8 92 1024.9 13.0 E 13.0 0.0 0.0
18:33 7.0 5.8 92 1024.7 13.0 E 13.0 0.0 0.0
18:34 7.0 5.8 92 1024.9 8.3 E 13.0 0.0 0.0
18:35 7.0 5.8 92 1024.9 12.1 ENE 13.0 0.0 0.0
18:36 7.0 5.8 92 1024.9 12.1 ENE 13.0 0.0 0.0
18:37 7.0 5.8 92 1025.0 13.6 E 13.6 0.0 0.0
18:38 7.0 5.8 92 1024.7 10.7 NE 13.6 0.0 0.0
18:39 7.0 5.8 92 1025.0 10.7 NE 13.6 0.0 0.0
18:40 7.0 5.8 92 1024.9 10.7 NE 13.6 0.0 0.0
18:41 7.0 5.8 92 1024.9 10.7 NE 13.6 0.0 0.0
18:42 7.0 5.8 92 1024.7 7.6 E 13.6 0.0 0.0
18:43 7.0 5.8 92 1024.8 11.4 WNW 13.6 0.0 0.0
18:44 7.0 5.8 92 1024.9 9.2 NE 13.6 0.0 0.0
18:45 7.0 5.8 92 1024.9 6.9 NE 13.6 0.0 0.0
18:46 7.0 5.8 92 1024.8 6.9 NE 13.6 0.0 0.0
18:47 7.0 5.8 92 1025.0 6.9 NE 13.6 0.0 0.0
18:49 7.0 5.8 92 1025.0 6.9 SSE 14.5 0.0 0.0
18:50 7.0 5.8 92 1025.0 6.0 E 14.5 0.0 0.0
18:51 7.0 5.8 92 1025.0 6.0 E 14.5 0.0 0.0
18:52 7.0 5.8 92 1025.3 6.0 N 14.5 0.0 0.0
18:53 7.0 5.8 92 1025.0 5.4 NE 14.5 0.0 0.0
18:54 7.0 5.8 92 1025.2 6.9 N 14.5 0.0 0.0
18:55 7.0 5.8 92 1025.2 6.9 N 14.5 0.0 0.0
18:56 7.0 5.8 92 1024.9 8.3 SE 14.5 0.0 0.0
18:57 7.0 5.8 92 1025.0 7.6 NNE 14.5 0.0 0.0
18:58 7.0 5.8 92 1025.1 7.6 NNE 14.5 0.0 0.0
18:59 7.0 5.8 92 1024.9 9.8 N 9.8 0.0 0.0
19:00 7.0 5.8 92 1025.0 9.2 NE 9.8 0.0 0.0
19:01 7.0 5.8 92 1025.2 9.2 NE 9.8 0.0 0.0
19:02 7.0 5.8 92 1025.2 9.2 NE 9.8 0.0 0.0
19:03 7.0 5.8 92 1025.0 9.2 NE 9.8 0.0 0.0
19:04 7.0 5.8 92 1025.1 9.2 NE 9.8 0.0 0.0
19:06 7.0 5.8 92 1025.0 6.0 W 9.8 0.0 0.0
19:07 7.0 5.9 93 1025.0 12.1 E 12.1 0.0 0.0
19:08 7.0 5.9 93 1025.0 12.1 E 12.1 0.0 0.0
19:09 7.0 5.9 93 1025.1 12.1 E 12.1 0.0 0.0
19:10 7.0 5.9 93 1024.9 6.9 NE 12.1 0.0 0.0
19:11 7.0 5.9 93 1025.2 6.9 NE 12.1 0.0 0.0
19:12 7.0 5.9 93 1025.0 9.8 NE 12.1 0.0 0.0
19:13 7.0 5.9 93 1025.1 9.8 NE 12.1 0.0 0.0
19:14 7.1 6.0 93 1025.4 8.3 NE 12.1 0.0 0.0
19:15 7.1 6.0 93 1025.2 8.3 NE 12.1 0.0 0.0
19:16 7.1 6.0 93 1025.2 8.3 NE 12.1 0.0 0.0
19:17 7.1 6.0 93 1025.4 8.3 E 12.1 0.0 0.0
19:18 7.1 6.0 93 1025.1 9.2 N 12.1 0.0 0.0
19:19 7.1 6.0 93 1025.3 9.2 N 12.1 0.0 0.0
19:20 7.1 6.0 93 1025.1 9.2 N 9.8 0.0 0.0
19:21 7.1 6.0 93 1025.0 6.0 W 9.8 0.0 0.0
19:22 7.1 6.0 93 1025.3 11.4 NE 11.4 0.0 0.0
19:23 7.1 6.0 93 1025.3 11.4 NE 11.4 0.0 0.0
19:24 7.1 6.0 93 1025.2 11.4 NE 11.4 0.0 0.0
19:25 7.1 6.0 93 1025.0 11.4 NE 11.4 0.0 0.0
19:26 7.1 6.0 93 1025.2 6.9 NE 11.4 0.0 0.0
19:27 7.1 6.0 93 1025.2 6.0 N 11.4 0.0 0.0
19:28 7.1 6.0 93 1025.0 9.2 NE 11.4 0.0 0.0
19:29 7.1 6.0 93 1025.1 9.2 NE 11.4 0.0 0.0
19:30 7.1 6.0 93 1025.2 6.0 S 11.4 0.0 0.0
19:32 7.1 6.0 93 1025.3 6.0 NE 11.4 0.0 0.0
19:33 7.1 6.0 93 1025.1 8.3 NE 11.4 0.0 0.0
19:34 7.1 6.0 93 1025.1 8.3 NE 11.4 0.0 0.0
19:35 7.1 6.0 93 1025.1 8.3 NE 11.4 0.0 0.0
19:36 7.1 6.0 93 1025.1 8.3 NE 9.2 0.0 0.0
19:37 7.1 6.0 93 1025.1 13.0 NE 13.0 0.0 0.0
19:38 7.1 6.0 93 1025.3 7.6 SE 13.0 0.0 0.0
19:39 7.1 6.0 93 1025.4 10.7 E 13.0 0.0 0.0
19:40 7.1 6.0 93 1025.2 7.6 NW 13.0 0.0 0.0
19:41 7.1 6.0 93 1025.2 7.6 NW 13.0 0.0 0.0
19:42 7.2 6.1 93 1025.2 8.3 W 13.0 0.0 0.0
19:43 7.2 6.1 93 1025.3 9.2 SE 13.0 0.0 0.0
19:44 7.2 6.1 93 1025.3 5.4 NW 13.0 0.0 0.0
19:45 7.2 6.1 93 1025.4 4.5 NE 13.0 0.0 0.0
19:46 7.2 6.1 93 1025.4 7.6 NE 13.0 0.0 0.0
19:47 7.2 6.1 93 1025.1 7.6 NE 10.7 0.0 0.0
19:48 7.2 6.1 93 1025.2 6.0 E 10.7 0.0 0.0
19:49 7.2 6.1 93 1025.2 3.8 E 9.2 0.0 0.0
19:51 7.2 6.1 93 1025.4 6.9 N 9.2 0.0 0.0
19:52 7.2 6.1 93 1025.3 6.0 NW 9.2 0.0 0.0
19:53 7.2 6.1 93 1025.5 5.4 NE 9.2 0.0 0.0
19:54 7.2 6.1 93 1025.2 9.2 N 9.2 0.0 0.0
19:55 7.2 6.1 93 1025.2 9.2 N 9.2 0.0 0.0
19:56 7.2 6.1 93 1025.1 5.4 SW 9.2 0.0 0.0
19:57 7.2 6.1 93 1025.2 7.6 W 9.2 0.0 0.0
19:58 7.2 6.1 93 1025.4 7.6 W 9.2 0.0 0.0
19:59 7.2 6.1 93 1025.3 5.4 NE 9.2 0.0 0.0
20:00 7.2 6.1 93 1025.3 6.0 N 9.2 0.0 0.0
20:01 7.3 6.2 93 1025.3 6.9 NE 9.2 0.0 0.0
20:02 7.2 6.1 93 1025.3 8.3 S 9.2 0.0 0.0
20:03 7.2 6.1 93 1025.1 6.0 NE 9.2 0.0 0.0
20:04 7.2 6.1 93 1025.2 7.6 N 12.1 0.0 0.0
20:05 7.2 6.3 94 1025.2 7.6 NW 12.1 0.0 0.0
20:06 7.2 6.3 94 1025.0 7.6 NNE 12.1 0.0 0.0
20:07 7.3 6.4 94 1025.4 4.5 E 12.1 0.0 0.0
20:09 7.3 6.4 94 1025.3 7.6 NW 12.1 0.0 0.0
20:10 7.3 6.4 94 1025.1 8.3 N 12.1 0.0 0.0
20:11 7.3 6.4 94 1025.1 7.6 SE 12.1 0.0 0.0
20:12 7.3 6.4 94 1024.9 7.6 NW 12.1 0.0 0.0
20:13 7.3 6.4 94 1025.1 6.0 NW 12.1 0.0 0.0
20:14 7.3 6.4 94 1025.2 6.9 NE 12.1 0.0 0.0
20:15 7.3 6.4 94 1025.1 8.3 SW 8.3 0.0 0.0
20:16 7.3 6.4 94 1025.4 9.8 NE 9.8 0.0 0.0
20:17 7.3 6.4 94 1025.2 5.4 W 9.8 0.0 0.0
20:18 7.3 6.4 94 1025.1 9.8 NE 9.8 0.0 0.0
20:19 7.4 6.5 94 1025.2 9.8 WSW 9.8 0.0 0.0
20:20 7.4 6.5 94 1025.3 6.0 SW 9.8 0.0 0.0
20:21 7.4 6.5 94 1025.0 6.0 N 9.8 0.0 0.0
20:22 7.4 6.5 94 1024.9 6.9 W 9.8 0.0 0.0
20:23 7.4 6.5 94 1025.0 9.2 SE 9.8 0.0 0.0
20:24 7.4 6.5 94 1024.9 6.9 E 9.8 0.0 0.0
20:25 7.4 6.5 94 1025.0 8.3 NE 9.8 0.0 0.0
20:26 7.4 6.5 94 1025.1 9.2 SE 9.8 0.0 0.0
20:27 7.4 6.5 94 1025.0 5.4 SW 9.8 0.0 0.0
20:29 7.4 6.5 94 1025.2 6.9 NE 9.2 0.0 0.0
20:30 7.4 6.5 94 1025.0 9.8 SE 9.8 0.0 0.0
20:31 7.4 6.5 94 1025.1 9.8 NE 9.8 0.0 0.0
20:32 7.4 6.5 94 1025.1 9.2 NE 9.8 0.0 0.0
20:33 7.4 6.5 94 1025.0 8.3 NE 9.8 0.0 0.0
20:34 7.4 6.5 94 1025.1 8.3 N 9.8 0.0 0.0
20:35 7.4 6.5 94 1025.1 5.4 N 9.8 0.0 0.0
20:36 7.4 6.5 94 1025.0 6.9 E 9.8 0.0 0.0
20:37 7.4 6.5 94 1025.0 4.5 SW 9.8 0.0 0.0
20:38 7.4 6.5 94 1025.0 8.3 NE 9.8 0.0 0.0
20:39 7.4 6.5 94 1025.1 7.6 NW 9.8 0.0 0.0
20:40 7.4 6.5 94 1025.1 6.9 NW 9.8 0.0 0.0
20:41 7.4 6.5 94 1025.2 10.7 N 10.7 0.0 0.0
20:42 7.4 6.5 94 1024.9 7.6 E 10.7 0.0 0.0
20:43 7.4 6.5 94 1025.1 5.4 NE 10.7 0.0 0.0
20:44 7.4 6.5 94 1025.1 6.0 NE 10.7 0.0 0.0
20:46 7.4 6.5 94 1025.3 9.8 N 10.7 0.0 0.0
20:47 7.4 6.5 94 1025.1 8.3 NE 10.7 0.0 0.0
20:48 7.4 6.5 94 1025.0 7.6 E 10.7 0.0 0.0
20:49 7.4 6.5 94 1025.1 5.4 NW 10.7 0.0 0.0
20:50 7.4 6.5 94 1025.0 10.7 S 10.7 0.0 0.1
20:51 7.4 6.5 94 1025.0 10.7 NE 10.7 0.8 0.1
20:52 7.4 6.5 94 1025.2 5.4 N 10.7 0.8 0.1
20:53 7.4 6.5 94 1025.2 4.5 NW 10.7 0.8 0.1
20:54 7.4 6.5 94 1025.1 6.0 SW 10.7 0.8 0.1
20:55 7.4 6.5 94 1025.1 8.3 NE 10.7 0.8 0.1
20:56 7.4 6.5 94 1025.0 8.3 NE 10.7 0.0 0.1
20:57 7.4 6.5 94 1025.0 4.5 NW 10.7 0.0 0.1
20:58 7.4 6.5 94 1025.1 5.4 N 10.7 0.0 0.1
20:59 7.4 6.5 94 1025.2 7.6 N 10.7 0.0 0.1
21:00 7.4 6.5 94 1025.1 8.3 S 10.7 0.0 0.1
21:01 7.4 6.5 94 1025.3 8.3 S 9.2 0.0 0.1
21:02 7.4 6.5 94 1025.3 8.3 S 9.2 0.0 0.1
21:03 7.4 6.5 94 1025.2 8.3 S 9.2 0.0 0.1
21:05 7.4 6.5 94 1025.3 8.3 S 8.3 0.0 0.1
21:06 7.4 6.5 94 1025.0 6.0 NNE 8.3 0.0 0.1
21:07 7.4 6.5 94 1025.3 7.6 SW 8.3 0.0 0.1
21:08 7.4 6.5 94 1025.1 7.6 NW 8.3 0.0 0.1
21:09 7.4 6.7 95 1025.0 6.9 N 8.3 0.0 0.1
21:10 7.4 6.7 95 1025.3 7.6 NE 8.3 0.0 0.1
21:11 7.4 6.7 95 1025.2 6.9 NE 8.3 0.0 0.1
21:12 7.4 6.7 95 1025.1 3.8 N 8.3 0.0 0.1
21:13 7.4 6.7 95 1025.2 7.6 NE 8.3 0.0 0.1
21:14 7.4 6.7 95 1025.2 11.4 NW 11.4 0.0 0.1
21:15 7.4 6.7 95 1025.3 6.0 SW 11.4 0.0 0.1
21:16 7.4 6.7 95 1025.3 6.0 N 11.4 0.0 0.1
21:17 7.4 6.7 95 1025.2 7.6 NW 11.4 0.0 0.1
21:18 7.4 6.7 95 1025.3 6.9 NW 11.4 0.0 0.1
21:19 7.4 6.7 95 1025.3 7.6 NE 11.4 0.0 0.1
21:20 7.4 6.7 95 1025.1 5.4 NW 11.4 0.0 0.1
21:21 7.4 6.7 95 1025.4 7.6 NE 11.4 0.8 0.1
21:22 7.4 6.7 95 1025.1 6.9 NE 11.4 0.8 0.2
21:23 7.4 6.7 95 1025.1 9.8 SW 11.4 1.5 0.2
21:24 7.4 6.7 95 1025.3 6.9 E 11.4 1.5 0.2
21:25 7.4 6.7 95 1025.1 8.3 E 9.8 1.5 0.2
21:26 7.4 6.7 95 1025.3 6.9 NE 9.8 0.8 0.2
21:27 7.4 6.7 95 1025.4 6.0 NE 9.8 0.8 0.3
21:28 7.4 6.7 95 1025.1 8.3 NE 9.8 0.8 0.3
21:29 7.4 6.7 95 1025.0 8.3 E 9.8 0.8 0.3
21:30 7.4 6.7 95 1025.0 5.4 SW 9.8 0.8 0.3
21:31 7.5 6.0 90 1025.4 9.2 E 9.8 0.8 0.3
21:32 7.5 6.0 90 1025.4 8.3 NW 9.8 0.8 0.3
21:33 7.5 6.0 90 1025.1 6.0 NE 9.8 0.0 0.3
21:35 7.5 6.0 90 1025.3 9.2 SE 9.8 0.0 0.3
21:36 7.5 6.0 90 1025.3 6.0 W 9.8 0.0 0.3
21:37 7.5 6.0 90 1025.2 5.4 NE 9.8 0.0 0.3
21:38 7.5 6.0 90 1025.3 6.9 N 9.8 0.0 0.3
21:39 7.5 6.0 90 1025.2 9.8 NW 9.8 0.0 0.3
21:40 7.5 6.0 90 1025.4 9.8 NE 9.8 0.0 0.3
21:41 7.5 6.0 90 1025.4 7.6 NW 9.8 0.0 0.3
21:42 7.5 6.0 90 1025.3 9.8 E 9.8 0.0 0.3
21:43 7.5 6.0 90 1025.3 8.3 N 9.8 0.0 0.3
21:44 7.5 6.0 90 1025.5 9.8 NE 9.8 0.0 0.3
21:45 7.5 6.0 90 1025.3 10.7 NE 10.7 0.0 0.3
21:46 7.5 6.0 90 1025.2 6.0 NE 10.7 0.0 0.3
21:47 7.5 6.0 90 1025.3 6.0 E 10.7 0.0 0.3
21:48 7.5 6.0 90 1025.3 6.0 NE 10.7 0.0 0.3
21:49 7.5 6.0 90 1025.2 4.5 NW 10.7 0.0 0.3
21:50 7.5 6.0 90 1025.3 4.5 N 10.7 0.0 0.3
21:51 7.5 6.0 90 1025.4 4.5 E 10.7 0.0 0.3
21:52 7.5 6.0 90 1025.3 6.9 NE 10.7 0.0 0.3
21:54 7.5 6.0 90 1025.3 8.3 N 11.4 0.0 0.3
21:55 7.5 6.0 90 1025.3 7.6 W 11.4 0.0 0.3
21:56 7.5 6.0 90 1025.1 7.6 E 11.4 0.0 0.3
21:57 7.5 6.0 90 1025.2 6.9 NE 11.4 0.0 0.3
21:58 7.5 6.0 90 1025.2 5.4 NE 11.4 0.0 0.3
21:59 7.5 6.0 90 1025.3 9.8 NNE 11.4 0.0 0.3
22:00 7.5 6.0 90 1025.2 6.9 SE 11.4 0.0 0.3
22:01 7.5 6.0 90 1025.1 8.3 NE 11.4 0.0 0.3
22:02 7.5 6.0 90 1025.1 7.6 NE 11.4 0.0 0.3
22:03 7.5 6.0 90 1025.2 6.0 S 11.4 0.0 0.3
22:04 7.5 6.0 90 1025.1 5.4 N 9.8 0.0 0.3
22:05 7.5 6.0 90 1025.1 7.6 NE 9.8 0.0 0.3
22:06 7.5 6.0 90 1025.2 7.6 NW 9.8 0.0 0.3
22:07 7.5 6.0 90 1025.1 9.2 NE 9.8 0.0 0.3
22:08 7.5 6.0 90 1025.1 9.8 NE 11.4 0.0 0.3
22:09 7.5 6.0 90 1025.0 6.0 E 11.4 0.0 0.3
22:10 7.5 6.0 90 1025.2 6.9 NE 11.4 0.0 0.3
22:11 7.5 6.0 90 1025.0 8.3 NE 11.4 0.0 0.3
22:12 7.5 6.0 90 1025.1 6.0 NE 11.4 0.0 0.3
22:14 7.5 6.0 90 1025.0 5.4 NE 11.4 0.0 0.3
22:15 7.5 6.0 90 1024.9 6.0 NE 11.4 0.0 0.3
22:16 7.5 6.0 90 1024.8 5.4 NE 11.4 0.0 0.3
22:17 7.5 6.0 90 1024.9 5.4 NE 11.4 0.0 0.3
22:18 7.6 6.1 90 1024.6 5.4 NE 11.4 0.0 0.3
22:19 7.6 6.1 90 1024.9 8.3 NE 9.8 0.0 0.3
22:20 7.6 6.1 90 1024.9 8.3 NE 8.3 0.0 0.3
22:21 7.6 6.1 90 1024.9 6.0 NE 8.3 0.0 0.3
22:22 7.6 6.1 90 1024.8 11.4 NE 11.4 0.0 0.3
22:23 7.6 6.1 90 1024.6 9.2 E 11.4 0.0 0.3
22:24 7.6 6.1 90 1025.0 6.9 NE 11.4 0.0 0.3
22:25 7.6 6.1 90 1024.9 5.4 NE 11.4 0.0 0.3
22:26 7.6 6.1 90 1025.0 9.2 NE 11.4 0.0 0.3
22:27 7.6 6.1 90 1025.2 9.2 NE 11.4 0.0 0.3
22:28 7.6 6.1 90 1024.7 9.8 E 11.4 0.0 0.3
22:29 7.6 6.1 90 1024.9 9.2 E 11.4 0.0 0.3
22:30 7.6 6.1 90 1024.8 8.3 SE 11.4 0.0 0.3
22:31 7.6 6.1 90 1025.1 7.6 ENE 11.4 0.0 0.3
22:33 7.6 6.1 90 1024.7 5.4 E 9.8 0.0 0.3
22:34 7.6 6.1 90 1024.8 5.4 E 9.8 0.0 0.3
22:35 7.5 6.0 90 1024.7 6.0 W 9.8 0.0 0.3
22:36 7.5 6.0 90 1025.0 6.0 NE 9.8 0.0 0.3
22:37 7.5 6.0 90 1025.0 6.0 NW 9.8 0.0 0.3
22:38 7.5 6.0 90 1024.7 4.5 NE 9.8 0.0 0.3
22:39 7.5 6.0 90 1024.7 6.0 E 9.2 0.0 0.3
22:40 7.5 6.0 90 1024.7 9.2 NE 9.2 0.0 0.3
22:41 7.5 6.0 90 1024.6 9.2 NE 9.2 0.0 0.3
22:42 7.5 6.1 91 1024.7 3.1 W 9.2 0.0 0.3
22:43 7.5 6.1 91 1024.7 2.2 N 9.2 0.0 0.3
22:44 7.5 6.1 91 1024.8 4.5 E 9.2 0.0 0.3
22:45 7.5 6.1 91 1024.8 5.4 NE 9.2 0.0 0.3
22:46 7.5 6.1 91 1024.8 5.4 NE 9.2 0.0 0.3
22:47 7.5 6.1 91 1024.8 6.9 NE 9.2 0.0 0.3
22:48 7.6 6.2 91 1024.9 6.0 NW 9.2 0.0 0.3
22:49 7.6 6.2 91 1025.0 9.2 NE 9.2 0.0 0.3
22:50 7.6 6.2 91 1024.9 9.8 SW 9.8 0.0 0.3
22:51 7.6 6.2 91 1024.9 9.8 NW 9.8 0.0 0.3
22:54 7.6 6.2 91 1025.1 7.6 NE 9.8 0.0 0.3
22:55 7.6 6.2 91 1025.0 6.0 N 9.8 0.0 0.3
22:56 7.6 6.2 91 1024.9 6.9 N 9.8 0.0 0.3
22:57 7.6 6.2 91 1024.9 6.9 N 9.8 0.0 0.3
22:58 7.6 6.2 91 1024.9 3.8 N 9.8 0.0 0.3
22:59 7.6 6.2 91 1025.0 6.9 N 9.8 0.0 0.3
23:00 7.6 6.2 91 1025.1 6.9 NE 9.8 0.0 0.3
23:01 7.6 6.2 91 1025.2 6.9 NE 9.8 0.0 0.3
23:02 7.6 6.2 91 1024.9 6.9 NE 7.6 0.0 0.3
23:03 7.6 6.2 91 1025.0 6.9 NE 7.6 0.0 0.3
23:04 7.6 6.2 91 1025.1 6.9 NE 7.6 0.0 0.3
23:05 7.6 6.2 91 1025.0 6.9 NE 6.9 0.0 0.3
23:06 7.6 6.2 91 1025.1 3.8 E 6.9 0.0 0.3
23:07 7.6 6.2 91 1025.2 4.5 SW 6.9 0.0 0.3
23:08 7.6 6.2 91 1025.2 4.5 NE 6.9 0.0 0.3
23:09 7.6 6.2 91 1025.3 4.5 SE 6.9 0.0 0.3
23:10 7.6 6.2 91 1025.3 3.1 SE 6.9 0.0 0.3
23:11 7.6 6.2 91 1025.3 3.1 SE 6.9 0.0 0.3
23:12 7.6 6.2 91 1025.4 3.8 SE 6.9 0.0 0.3
23:13 7.6 6.2 91 1025.6 7.6 S 7.6 0.0 0.3
23:14 7.6 6.2 91 1025.4 6.9 SE 7.6 0.0 0.3
23:15 7.6 6.2 91 1025.6 4.5 NE 7.6 0.0 0.3
23:16 7.6 6.2 91 1025.4 2.2 W 7.6 0.0 0.3
23:17 7.6 6.2 91 1025.2 3.1 W 7.6 0.0 0.3
23:18 7.6 6.2 91 1025.2 6.9 NW 7.6 0.0 0.3
23:19 7.6 6.2 91 1025.4 6.9 E 7.6 0.0 0.3
23:20 7.6 6.2 91 1025.1 5.4 NE 7.6 0.0 0.3
23:21 7.6 6.2 91 1025.0 5.4 E 7.6 0.0 0.3
23:22 7.6 6.2 91 1025.0 7.6 NE 7.6 0.0 0.3
23:23 7.6 6.2 91 1025.0 6.9 NE 7.6 0.0 0.3
23:24 7.6 6.2 91 1024.9 9.2 W 9.2 0.0 0.3
23:26 7.6 6.2 91 1025.0 6.0 NE 9.2 0.0 0.3
23:27 7.6 6.2 91 1025.1 6.0 NE 9.2 0.0 0.3
23:28 7.6 6.2 91 1025.1 8.3 NW 9.2 0.0 0.3
23:29 7.6 6.2 91 1025.1 7.6 N 9.2 0.0 0.3
23:30 7.6 6.2 91 1024.8 6.9 E 9.2 0.0 0.3
23:31 7.6 6.2 91 1024.8 9.2 NE 9.2 0.0 0.3
23:32 7.6 6.2 91 1025.0 9.2 SE 9.2 0.0 0.3
23:33 7.6 6.2 91 1024.9 9.2 NE 9.2 0.0 0.3
23:34 7.6 6.2 91 1024.8 6.0 NW 9.2 0.0 0.3
23:35 7.6 6.2 91 1024.7 6.0 NNE 9.2 0.8 0.4
23:36 7.6 6.2 91 1024.9 9.2 NE 9.2 1.5 0.4
23:37 7.6 6.2 91 1024.7 8.3 SE 9.2 3.0 0.5
23:38 7.6 6.2 91 1024.9 6.0 NE 9.2 3.8 0.6
23:39 7.6 6.2 91 1024.7 6.0 NE 9.2 3.8 0.6
23:40 7.6 6.2 91 1024.9 5.4 NE 9.2 3.0 0.6
23:41 7.6 6.2 91 1024.9 3.8 NE 9.2 2.3 0.6
23:42 7.6 6.2 91 1024.7 9.2 NE 9.2 0.8 0.6
23:43 7.6 6.2 91 1025.0 9.2 NE 9.2 0.0 0.6
23:44 7.6 6.2 91 1024.7 7.6 NE 9.2 0.0 0.6
23:46 7.6 6.2 91 1024.8 7.6 E 9.2 0.8 0.6
23:47 7.6 6.2 91 1024.8 7.6 N 9.2 0.8 0.7
23:48 7.6 6.2 91 1024.7 8.3 NE 9.2 1.5 0.8
23:49 7.6 6.2 91 1024.8 7.6 N 9.2 2.3 0.8
23:50 7.6 6.2 91 1024.8 8.3 NE 9.2 1.5 0.8
23:51 7.6 6.2 91 1024.8 9.2 NE 9.2 2.3 0.8
23:52 7.6 6.2 91 1024.8 9.2 NE 9.2 2.3 0.8
23:53 7.6 6.2 91 1024.8 7.6 N 9.2 1.5 0.8
23:54 7.6 6.2 91 1024.9 8.3 E 9.2 0.8 0.8
23:55 7.6 6.2 91 1024.8 3.8 N 9.2 0.8 0.8
23:56 7.6 6.2 91 1024.9 6.0 NE 9.2 0.0 0.8
23:57 7.6 6.2 91 1024.8 6.0 NE 9.2 0.0 0.8
23:58 7.6 6.2 91 1024.8 8.3 NE 9.2 0.0 0.8
23:59 7.6 6.2 91 1024.8 8.3 SE 9.2 0.0 0.8

 

 

UK - WEATHER STATION TOPSITES - UK World Weather Websites

Copyright © Carnkie Weather 2009 - 2021.